Time,TemperatureF,DewpointF,PressureIn,WindDirection,WindDirectionDegrees,WindSpeedMPH,WindSpeedGustMPH,Humidity,HourlyPrecipIn,Conditions,Clouds,dailyrainin,SoftwareType,DateUTC
2013-09-17 00:00:00,59.9,55.4,25.25,South,174,2.2,3.1,85,0.00,,---,0.00,VWS V14.01,2013-09-17 06:00:00,
2013-09-17 00:01:00,59.7,55.2,25.25,South,174,0.0,2.2,85,0.00,,---,0.00,VWS V14.01,2013-09-17 06:01:00,
2013-09-17 00:03:00,59.9,55.4,25.25,South,174,0.0,0.0,85,0.00,,---,0.00,VWS V14.01,2013-09-17 06:03:00,
2013-09-17 00:04:00,59.9,55.4,25.25,South,174,0.0,0.0,85,0.00,,---,0.00,VWS V14.01,2013-09-17 06:04:00,
2013-09-17 00:05:00,59.9,55.4,25.22,South,174,0.0,0.0,85,0.00,,---,0.00,VWS V14.01,2013-09-17 06:05:00,
2013-09-17 00:06:00,59.9,55.4,25.22,South,174,0.0,0.0,85,0.00,,---,0.00,VWS V14.01,2013-09-17 06:06:00,
2013-09-17 00:08:00,59.9,55.4,25.22,South,174,0.0,0.0,85,0.00,,---,0.00,VWS V14.01,2013-09-17 06:08:00,
2013-09-17 00:09:00,59.9,55.4,25.22,South,174,2.2,2.7,85,0.00,,---,0.00,VWS V14.01,2013-09-17 06:09:00,
2013-09-17 00:13:00,59.7,55.2,25.22,South,174,0.0,0.0,85,0.00,,---,0.00,VWS V14.01,2013-09-17 06:13:00,
2013-09-17 00:14:00,59.7,55.2,25.22,South,174,0.0,0.0,85,0.00,,---,0.00,VWS V14.01,2013-09-17 06:14:00,
2013-09-17 00:15:00,59.7,55.5,25.22,South,174,2.2,2.2,86,0.00,,---,0.00,VWS V14.01,2013-09-17 06:15:00,
2013-09-17 00:18:00,59.7,55.5,25.22,South,176,2.2,2.7,86,0.00,,---,0.00,VWS V14.01,2013-09-17 06:18:00,
2013-09-17 00:19:00,59.7,55.5,25.22,South,176,0.0,2.7,86,0.00,,---,0.00,VWS V14.01,2013-09-17 06:19:00,
2013-09-17 00:21:00,59.7,55.5,25.22,South,176,2.7,2.7,86,0.00,,---,0.00,VWS V14.01,2013-09-17 06:21:00,
2013-09-17 00:23:00,59.7,55.5,25.22,South,176,0.0,2.2,86,0.00,,---,0.00,VWS V14.01,2013-09-17 06:23:00,
2013-09-17 00:25:00,59.7,55.5,25.22,South,176,2.7,2.7,86,0.00,,---,0.00,VWS V14.01,2013-09-17 06:25:00,
2013-09-17 00:26:00,59.7,55.5,25.22,South,176,2.2,2.7,86,0.00,,---,0.00,VWS V14.01,2013-09-17 06:26:00,
2013-09-17 00:27:00,59.7,55.8,25.22,South,176,2.2,2.2,87,0.00,,---,0.00,VWS V14.01,2013-09-17 06:27:00,
2013-09-17 00:29:00,59.9,56.0,25.22,South,176,2.2,2.7,87,0.00,,---,0.00,VWS V14.01,2013-09-17 06:29:00,
2013-09-17 00:30:00,59.9,56.0,25.22,South,176,0.0,2.2,87,0.00,,---,0.00,VWS V14.01,2013-09-17 06:30:00,
2013-09-17 00:32:00,59.9,56.0,25.22,South,176,2.7,2.7,87,0.00,,---,0.00,VWS V14.01,2013-09-17 06:32:00,
2013-09-17 00:34:00,60.1,56.2,25.22,South,176,0.0,2.7,87,0.00,,---,0.00,VWS V14.01,2013-09-17 06:34:00,
2013-09-17 00:38:00,60.1,55.9,25.22,South,176,0.0,0.0,86,0.00,,---,0.00,VWS V14.01,2013-09-17 06:38:00,
2013-09-17 00:40:00,60.1,55.9,25.22,South,176,2.7,3.6,86,0.00,,---,0.00,VWS V14.01,2013-09-17 06:40:00,
2013-09-17 00:41:00,60.1,55.9,25.22,South,176,2.7,2.7,86,0.00,,---,0.00,VWS V14.01,2013-09-17 06:41:00,
2013-09-17 00:43:00,60.3,56.1,25.22,South,176,0.0,3.1,86,0.00,,---,0.00,VWS V14.01,2013-09-17 06:43:00,
2013-09-17 00:44:00,60.3,56.1,25.22,South,176,0.0,2.2,86,0.00,,---,0.00,VWS V14.01,2013-09-17 06:44:00,
2013-09-17 00:46:00,60.3,55.7,25.22,South,176,3.1,3.1,85,0.00,,---,0.00,VWS V14.01,2013-09-17 06:46:00,
2013-09-17 00:48:00,60.3,55.4,25.25,South,176,2.7,2.7,84,0.00,,---,0.00,VWS V14.01,2013-09-17 06:48:00,
2013-09-17 00:49:00,60.3,55.4,25.25,South,176,3.1,3.1,84,0.00,,---,0.00,VWS V14.01,2013-09-17 06:49:00,
2013-09-17 00:50:00,60.3,55.4,25.25,South,176,0.0,3.1,84,0.00,,---,0.00,VWS V14.01,2013-09-17 06:50:00,
2013-09-17 00:51:00,60.3,55.4,25.25,South,176,2.2,2.7,84,0.00,,---,0.00,VWS V14.01,2013-09-17 06:51:00,
2013-09-17 00:52:00,60.1,54.9,25.25,South,176,2.7,3.1,83,0.00,,---,0.00,VWS V14.01,2013-09-17 06:52:00,
2013-09-17 00:54:00,60.1,54.9,25.25,South,176,0.0,0.0,83,0.00,,---,0.00,VWS V14.01,2013-09-17 06:54:00,
2013-09-17 00:56:00,60.1,54.9,25.25,South,175,3.1,3.1,83,0.00,,---,0.00,VWS V14.01,2013-09-17 06:56:00,
2013-09-17 00:59:00,59.9,54.7,25.25,South,185,2.2,3.1,83,0.00,,---,0.00,VWS V14.01,2013-09-17 06:59:00,
2013-09-17 01:00:00,59.9,54.7,25.25,South,186,2.7,2.7,83,0.00,,---,0.00,VWS V14.01,2013-09-17 07:00:00,
2013-09-17 01:01:00,59.9,54.7,25.25,South,186,2.7,2.7,83,0.00,,---,0.00,VWS V14.01,2013-09-17 07:01:00,
2013-09-17 01:06:00,59.9,54.4,25.25,South,186,3.1,3.6,82,0.00,,---,0.00,VWS V14.01,2013-09-17 07:06:00,
2013-09-17 01:07:00,60.1,54.6,25.22,South,186,2.2,3.1,82,0.00,,---,0.00,VWS V14.01,2013-09-17 07:07:00,
2013-09-17 01:08:00,60.1,54.6,25.22,South,186,2.2,2.2,82,0.00,,---,0.00,VWS V14.01,2013-09-17 07:08:00,
2013-09-17 01:09:00,60.1,54.6,25.22,SW,216,0.0,3.1,82,0.00,,---,0.00,VWS V14.01,2013-09-17 07:09:00,
2013-09-17 01:11:00,60.3,54.8,25.22,SSE,149,2.7,3.6,82,0.00,,---,0.00,VWS V14.01,2013-09-17 07:11:00,
2013-09-17 01:13:00,60.4,54.6,25.22,SSW,205,2.7,3.1,81,0.00,,---,0.00,VWS V14.01,2013-09-17 07:13:00,
2013-09-17 01:15:00,60.4,54.6,25.22,SSW,199,0.0,0.0,81,0.00,,---,0.00,VWS V14.01,2013-09-17 07:15:00,
2013-09-17 01:16:00,60.4,54.6,25.22,SSW,198,0.0,2.2,81,0.00,,---,0.00,VWS V14.01,2013-09-17 07:16:00,
2013-09-17 01:17:00,60.4,54.2,25.22,SSW,198,0.0,0.0,80,0.00,,---,0.00,VWS V14.01,2013-09-17 07:17:00,
2013-09-17 01:18:00,60.3,54.1,25.22,SSW,196,3.6,3.6,80,0.00,,---,0.00,VWS V14.01,2013-09-17 07:18:00,
2013-09-17 01:21:00,60.4,54.2,25.22,South,189,2.7,2.7,80,0.00,,---,0.00,VWS V14.01,2013-09-17 07:21:00,
2013-09-17 01:22:00,60.4,54.2,25.22,South,189,3.1,3.1,80,0.00,,---,0.00,VWS V14.01,2013-09-17 07:22:00,
2013-09-17 01:23:00,60.4,54.2,25.22,SSW,205,3.1,3.6,80,0.00,,---,0.00,VWS V14.01,2013-09-17 07:23:00,
2013-09-17 01:24:00,60.4,54.2,25.22,SSW,205,2.2,3.1,80,0.00,,---,0.00,VWS V14.01,2013-09-17 07:24:00,
2013-09-17 01:27:00,60.4,53.9,25.22,SE,140,5.4,5.4,79,0.00,,---,0.00,VWS V14.01,2013-09-17 07:27:00,
2013-09-17 01:28:00,60.4,53.9,25.22,SSW,192,3.1,5.4,79,0.00,,---,0.00,VWS V14.01,2013-09-17 07:28:00,
2013-09-17 01:30:00,60.4,53.9,25.22,SSW,205,2.7,4.9,79,0.00,,---,0.00,VWS V14.01,2013-09-17 07:30:00,
2013-09-17 01:32:00,60.4,53.9,25.22,South,191,3.6,3.6,79,0.00,,---,0.00,VWS V14.01,2013-09-17 07:32:00,
2013-09-17 01:34:00,60.8,53.2,25.22,South,191,3.1,3.1,76,0.00,,---,0.00,VWS V14.01,2013-09-17 07:34:00,
2013-09-17 01:35:00,60.6,53.0,25.22,South,185,3.6,3.6,76,0.00,,---,0.00,VWS V14.01,2013-09-17 07:35:00,
2013-09-17 01:36:00,60.6,53.0,25.22,SSE,159,2.7,3.6,76,0.00,,---,0.00,VWS V14.01,2013-09-17 07:36:00,
2013-09-17 01:37:00,60.6,53.0,25.22,SSE,159,0.0,2.7,76,0.00,,---,0.00,VWS V14.01,2013-09-17 07:37:00,
2013-09-17 01:38:00,60.6,53.4,25.22,SSE,167,4.0,4.0,77,0.00,,---,0.00,VWS V14.01,2013-09-17 07:38:00,
2013-09-17 01:41:00,60.6,53.4,25.22,SSW,196,2.2,2.7,77,0.00,,---,0.00,VWS V14.01,2013-09-17 07:41:00,
2013-09-17 01:42:00,60.6,53.4,25.22,SSW,194,2.2,2.2,77,0.00,,---,0.00,VWS V14.01,2013-09-17 07:42:00,
2013-09-17 01:43:00,60.4,52.8,25.22,SSW,194,0.0,2.2,76,0.00,,---,0.00,VWS V14.01,2013-09-17 07:43:00,
2013-09-17 01:45:00,60.4,52.5,25.22,SSW,194,0.0,3.6,75,0.00,,---,0.00,VWS V14.01,2013-09-17 07:45:00,
2013-09-17 01:46:00,60.6,52.3,25.22,SSW,194,0.0,0.0,74,0.00,,---,0.00,VWS V14.01,2013-09-17 07:46:00,
2013-09-17 01:48:00,60.6,52.3,25.22,SSW,193,3.1,3.1,74,0.00,,---,0.00,VWS V14.01,2013-09-17 07:48:00,
2013-09-17 01:49:00,61.0,52.7,25.22,SSW,196,3.1,3.6,74,0.00,,---,0.00,VWS V14.01,2013-09-17 07:49:00,
2013-09-17 01:50:00,61.0,52.7,25.22,SSW,197,2.2,4.0,74,0.00,,---,0.00,VWS V14.01,2013-09-17 07:50:00,
2013-09-17 01:51:00,61.0,52.7,25.22,SSW,197,2.2,2.2,74,0.00,,---,0.00,VWS V14.01,2013-09-17 07:51:00,
2013-09-17 01:54:00,61.0,52.7,25.22,SSW,197,2.2,2.2,74,0.00,,---,0.00,VWS V14.01,2013-09-17 07:54:00,
2013-09-17 01:55:00,60.8,52.5,25.22,SSW,197,2.7,2.7,74,0.00,,---,0.00,VWS V14.01,2013-09-17 07:55:00,
2013-09-17 01:56:00,60.8,52.5,25.22,SSW,202,2.7,3.1,74,0.00,,---,0.00,VWS V14.01,2013-09-17 07:56:00,
2013-09-17 02:00:00,60.4,52.8,25.22,SSW,202,0.0,2.7,76,0.00,,---,0.00,VWS V14.01,2013-09-17 08:00:00,
2013-09-17 02:01:00,60.4,52.8,25.22,SSW,202,0.0,0.0,76,0.00,,---,0.00,VWS V14.01,2013-09-17 08:01:00,
2013-09-17 02:02:00,60.4,52.8,25.22,SSW,202,0.0,0.0,76,0.00,,---,0.00,VWS V14.01,2013-09-17 08:02:00,
2013-09-17 02:03:00,60.4,53.2,25.22,SSW,202,2.2,2.2,77,0.00,,---,0.00,VWS V14.01,2013-09-17 08:03:00,
2013-09-17 02:05:00,60.4,53.2,25.22,SSW,202,0.0,2.2,77,0.00,,---,0.00,VWS V14.01,2013-09-17 08:05:00,
2013-09-17 02:06:00,60.4,53.2,25.22,SSW,202,0.0,0.0,77,0.00,,---,0.00,VWS V14.01,2013-09-17 08:06:00,
2013-09-17 02:07:00,60.4,53.2,25.22,SSW,202,0.0,0.0,77,0.00,,---,0.00,VWS V14.01,2013-09-17 08:07:00,
2013-09-17 02:11:00,60.3,53.0,25.22,SSW,202,0.0,0.0,77,0.00,,---,0.00,VWS V14.01,2013-09-17 08:11:00,
2013-09-17 02:12:00,60.3,53.0,25.22,SSW,202,0.0,0.0,77,0.00,,---,0.00,VWS V14.01,2013-09-17 08:12:00,
2013-09-17 02:13:00,60.3,53.0,25.22,SSW,202,0.0,0.0,77,0.00,,---,0.00,VWS V14.01,2013-09-17 08:13:00,
2013-09-17 02:14:00,60.3,53.0,25.22,SSW,202,0.0,0.0,77,0.00,,---,0.00,VWS V14.01,2013-09-17 08:14:00,
2013-09-17 02:15:00,60.3,53.0,25.22,SSW,202,3.1,3.1,77,0.00,,---,0.00,VWS V14.01,2013-09-17 08:15:00,
2013-09-17 02:19:00,60.3,53.0,25.22,SSW,204,2.7,3.6,77,0.00,,---,0.00,VWS V14.01,2013-09-17 08:19:00,
2013-09-17 02:20:00,60.6,52.3,25.22,SSW,204,0.0,2.7,74,0.00,,---,0.00,VWS V14.01,2013-09-17 08:20:00,
2013-09-17 02:21:00,60.6,52.3,25.22,SSW,204,2.2,2.2,74,0.00,,---,0.00,VWS V14.01,2013-09-17 08:21:00,
2013-09-17 02:22:00,60.6,52.3,25.22,SSW,204,2.2,2.7,74,0.00,,---,0.00,VWS V14.01,2013-09-17 08:22:00,
2013-09-17 02:24:00,60.8,52.1,25.22,SSW,204,2.7,3.1,73,0.00,,---,0.00,VWS V14.01,2013-09-17 08:24:00,
2013-09-17 02:25:00,60.8,52.1,25.22,SSW,204,2.2,2.7,73,0.00,,---,0.00,VWS V14.01,2013-09-17 08:25:00,
2013-09-17 02:27:00,61.0,52.3,25.22,SSW,204,2.7,2.7,73,0.00,,---,0.00,VWS V14.01,2013-09-17 08:27:00,
2013-09-17 02:28:00,61.0,52.3,25.22,SSW,204,0.0,2.7,73,0.00,,---,0.00,VWS V14.01,2013-09-17 08:28:00,
2013-09-17 02:31:00,60.8,51.7,25.22,SSW,204,3.1,3.1,72,0.00,,---,0.00,VWS V14.01,2013-09-17 08:31:00,
2013-09-17 02:32:00,60.8,51.7,25.22,SSW,204,2.7,3.1,72,0.00,,---,0.00,VWS V14.01,2013-09-17 08:32:00,
2013-09-17 02:33:00,60.8,51.7,25.22,SSW,204,2.2,3.1,72,0.00,,---,0.00,VWS V14.01,2013-09-17 08:33:00,
2013-09-17 02:37:00,60.8,51.7,25.22,SSW,204,0.0,0.0,72,0.00,,---,0.00,VWS V14.01,2013-09-17 08:37:00,
2013-09-17 02:39:00,60.6,51.9,25.22,SSW,204,0.0,3.1,73,0.00,,---,0.00,VWS V14.01,2013-09-17 08:39:00,
2013-09-17 02:41:00,60.4,52.1,25.22,SSW,202,2.2,3.1,74,0.00,,---,0.00,VWS V14.01,2013-09-17 08:41:00,
2013-09-17 02:44:00,60.4,52.1,25.22,SSW,202,0.0,0.0,74,0.00,,---,0.00,VWS V14.01,2013-09-17 08:44:00,
2013-09-17 02:45:00,60.4,52.1,25.22,SSW,202,0.0,2.2,74,0.00,,---,0.00,VWS V14.01,2013-09-17 08:45:00,
2013-09-17 02:46:00,60.4,52.1,25.22,SSW,202,0.0,0.0,74,0.00,,---,0.00,VWS V14.01,2013-09-17 08:46:00,
2013-09-17 02:47:00,60.4,52.1,25.22,SSW,202,0.0,0.0,74,0.00,,---,0.00,VWS V14.01,2013-09-17 08:47:00,
2013-09-17 02:48:00,60.4,52.1,25.22,SSW,202,0.0,0.0,74,0.00,,---,0.00,VWS V14.01,2013-09-17 08:48:00,
2013-09-17 02:52:00,60.4,52.1,25.22,SSW,202,0.0,2.7,74,0.00,,---,0.00,VWS V14.01,2013-09-17 08:52:00,
2013-09-17 02:53:00,60.4,52.1,25.22,SSW,202,2.7,2.7,74,0.00,,---,0.00,VWS V14.01,2013-09-17 08:53:00,
2013-09-17 02:54:00,60.4,52.1,25.22,SSW,202,2.2,2.7,74,0.00,,---,0.00,VWS V14.01,2013-09-17 08:54:00,
2013-09-17 02:57:00,60.6,51.9,25.22,SSW,202,0.0,2.7,73,0.00,,---,0.00,VWS V14.01,2013-09-17 08:57:00,
2013-09-17 02:58:00,60.6,51.9,25.22,SSW,202,3.6,3.6,73,0.00,,---,0.00,VWS V14.01,2013-09-17 08:58:00,
2013-09-17 02:59:00,60.6,51.9,25.22,SSW,202,0.0,3.6,73,0.00,,---,0.00,VWS V14.01,2013-09-17 08:59:00,
2013-09-17 03:00:00,60.6,51.9,25.22,SSW,202,2.2,2.7,73,0.00,,---,0.00,VWS V14.01,2013-09-17 09:00:00,
2013-09-17 03:03:00,60.8,52.1,25.22,SSW,202,2.7,2.7,73,0.00,,---,0.00,VWS V14.01,2013-09-17 09:03:00,
2013-09-17 03:05:00,60.8,52.1,25.22,SSW,202,0.0,2.2,73,0.00,,---,0.00,VWS V14.01,2013-09-17 09:05:00,
2013-09-17 03:06:00,60.8,52.1,25.22,SSW,202,0.0,0.0,73,0.00,,---,0.00,VWS V14.01,2013-09-17 09:06:00,
2013-09-17 03:08:00,60.8,52.1,25.22,SSW,202,0.0,0.0,73,0.00,,---,0.00,VWS V14.01,2013-09-17 09:08:00,
2013-09-17 03:10:00,60.8,52.1,25.22,SSW,202,0.0,2.2,73,0.00,,---,0.00,VWS V14.01,2013-09-17 09:10:00,
2013-09-17 03:12:00,60.8,52.5,25.22,SSW,202,2.7,4.0,74,0.00,,---,0.00,VWS V14.01,2013-09-17 09:12:00,
2013-09-17 03:15:00,60.8,52.5,25.22,SSW,202,0.0,2.7,74,0.00,,---,0.00,VWS V14.01,2013-09-17 09:15:00,
2013-09-17 03:16:00,60.8,52.5,25.22,SSW,202,0.0,0.0,74,0.00,,---,0.00,VWS V14.01,2013-09-17 09:16:00,
2013-09-17 03:19:00,60.8,52.5,25.22,SSW,202,0.0,0.0,74,0.00,,---,0.00,VWS V14.01,2013-09-17 09:19:00,
2013-09-17 03:20:00,60.8,52.5,25.22,SSW,202,2.7,2.7,74,0.00,,---,0.00,VWS V14.01,2013-09-17 09:20:00,
2013-09-17 03:21:00,60.8,52.5,25.22,SSW,202,3.1,3.1,74,0.00,,---,0.00,VWS V14.01,2013-09-17 09:21:00,
2013-09-17 03:22:00,60.6,53.0,25.22,SSW,203,2.7,3.1,76,0.00,,---,0.00,VWS V14.01,2013-09-17 09:22:00,
2013-09-17 03:24:00,60.6,53.0,25.22,SSW,205,3.6,3.6,76,0.00,,---,0.00,VWS V14.01,2013-09-17 09:24:00,
2013-09-17 03:25:00,60.8,53.2,25.22,SSW,206,3.1,3.6,76,0.00,,---,0.00,VWS V14.01,2013-09-17 09:25:00,
2013-09-17 03:28:00,60.8,53.2,25.22,SW,219,3.6,3.6,76,0.00,,---,0.00,VWS V14.01,2013-09-17 09:28:00,
2013-09-17 03:31:00,61.3,53.0,25.22,SW,219,2.2,2.7,74,0.00,,---,0.00,VWS V14.01,2013-09-17 09:31:00,
2013-09-17 03:32:00,61.3,53.0,25.22,SW,219,2.2,2.2,74,0.00,,---,0.00,VWS V14.01,2013-09-17 09:32:00,
2013-09-17 03:33:00,61.3,53.0,25.22,SW,214,2.7,2.7,74,0.00,,---,0.00,VWS V14.01,2013-09-17 09:33:00,
2013-09-17 03:34:00,61.3,53.0,25.22,SW,214,2.7,2.7,74,0.00,,---,0.00,VWS V14.01,2013-09-17 09:34:00,
2013-09-17 03:37:00,61.3,53.0,25.22,SSW,212,3.1,3.1,74,0.00,,---,0.00,VWS V14.01,2013-09-17 09:37:00,
2013-09-17 03:38:00,61.5,53.2,25.22,SSW,212,3.1,3.1,74,0.00,,---,0.00,VWS V14.01,2013-09-17 09:38:00,
2013-09-17 03:39:00,61.5,53.5,25.22,SSW,212,2.7,3.1,75,0.00,,---,0.00,VWS V14.01,2013-09-17 09:39:00,
2013-09-17 03:40:00,61.5,53.5,25.22,SSW,212,2.2,2.7,75,0.00,,---,0.00,VWS V14.01,2013-09-17 09:40:00,
2013-09-17 03:42:00,61.5,53.5,25.22,SSW,212,2.7,2.7,75,0.00,,---,0.00,VWS V14.01,2013-09-17 09:42:00,
2013-09-17 03:44:00,61.5,53.5,25.22,SSW,212,0.0,0.0,75,0.00,,---,0.00,VWS V14.01,2013-09-17 09:44:00,
2013-09-17 03:45:00,61.5,53.5,25.22,SSW,212,0.0,0.0,75,0.00,,---,0.00,VWS V14.01,2013-09-17 09:45:00,
2013-09-17 03:46:00,61.5,53.5,25.22,SSW,212,0.0,2.2,75,0.00,,---,0.00,VWS V14.01,2013-09-17 09:46:00,
2013-09-17 03:48:00,61.5,53.5,25.22,SSW,212,2.7,2.7,75,0.00,,---,0.00,VWS V14.01,2013-09-17 09:48:00,
2013-09-17 03:50:00,61.5,53.5,25.22,SSW,212,2.2,2.2,75,0.00,,---,0.00,VWS V14.01,2013-09-17 09:50:00,
2013-09-17 03:51:00,61.0,53.4,25.22,SSW,212,0.0,2.2,76,0.00,,---,0.00,VWS V14.01,2013-09-17 09:51:00,
2013-09-17 03:53:00,61.0,53.4,25.22,SSW,212,0.0,0.0,76,0.00,,---,0.00,VWS V14.01,2013-09-17 09:53:00,
2013-09-17 03:55:00,60.8,53.2,25.22,SSW,212,0.0,0.0,76,0.00,,---,0.00,VWS V14.01,2013-09-17 09:55:00,
2013-09-17 03:57:00,60.6,53.0,25.22,SSW,212,0.0,0.0,76,0.00,,---,0.00,VWS V14.01,2013-09-17 09:57:00,
2013-09-17 03:58:00,60.6,53.0,25.22,SSW,212,0.0,0.0,76,0.00,,---,0.00,VWS V14.01,2013-09-17 09:58:00,
2013-09-17 03:59:00,60.6,53.0,25.22,SSW,212,2.7,2.7,76,0.00,,---,0.00,VWS V14.01,2013-09-17 09:59:00,
2013-09-17 04:00:00,60.6,53.4,25.22,SSW,212,3.1,3.1,77,0.00,,---,0.00,VWS V14.01,2013-09-17 10:00:00,
2013-09-17 04:02:00,60.6,53.4,25.22,SSW,213,3.1,3.6,77,0.00,,---,0.00,VWS V14.01,2013-09-17 10:02:00,
2013-09-17 04:03:00,60.4,53.6,25.22,SSW,213,3.1,3.1,78,0.00,,---,0.00,VWS V14.01,2013-09-17 10:03:00,
2013-09-17 04:06:00,60.4,53.6,25.22,SSW,213,2.2,2.2,78,0.00,,---,0.00,VWS V14.01,2013-09-17 10:06:00,
2013-09-17 04:08:00,60.6,53.4,25.22,SSW,213,2.7,3.6,77,0.00,,---,0.00,VWS V14.01,2013-09-17 10:08:00,
2013-09-17 04:09:00,60.6,53.4,25.22,SSW,213,2.7,2.7,77,0.00,,---,0.00,VWS V14.01,2013-09-17 10:09:00,
2013-09-17 04:13:00,60.6,53.4,25.22,SSW,213,2.2,2.7,77,0.00,,---,0.00,VWS V14.01,2013-09-17 10:13:00,
2013-09-17 04:14:00,60.6,53.4,25.22,SSW,213,2.7,2.7,77,0.00,,---,0.00,VWS V14.01,2013-09-17 10:14:00,
2013-09-17 04:15:00,60.6,53.4,25.22,SSW,213,0.0,2.7,77,0.00,,---,0.00,VWS V14.01,2013-09-17 10:15:00,
2013-09-17 04:18:00,60.8,53.5,25.22,SSW,211,2.2,2.7,77,0.00,,---,0.00,VWS V14.01,2013-09-17 10:18:00,
2013-09-17 04:19:00,60.8,53.5,25.22,SSW,211,0.0,2.2,77,0.00,,---,0.00,VWS V14.01,2013-09-17 10:19:00,
2013-09-17 04:20:00,60.8,53.5,25.22,SSW,211,0.0,0.0,77,0.00,,---,0.00,VWS V14.01,2013-09-17 10:20:00,
2013-09-17 04:23:00,60.8,53.5,25.22,SSW,211,3.6,3.6,77,0.00,,---,0.00,VWS V14.01,2013-09-17 10:23:00,
2013-09-17 04:25:00,60.8,53.5,25.22,SSW,211,0.0,2.7,77,0.00,,---,0.00,VWS V14.01,2013-09-17 10:25:00,
2013-09-17 04:26:00,60.8,53.9,25.22,SSW,211,0.0,0.0,78,0.00,,---,0.00,VWS V14.01,2013-09-17 10:26:00,
2013-09-17 04:28:00,60.8,53.9,25.22,SSW,211,2.7,2.7,78,0.00,,---,0.00,VWS V14.01,2013-09-17 10:28:00,
2013-09-17 04:31:00,61.0,54.1,25.22,SSW,211,0.0,0.0,78,0.00,,---,0.00,VWS V14.01,2013-09-17 10:31:00,
2013-09-17 04:32:00,61.0,54.1,25.22,SSW,211,0.0,0.0,78,0.00,,---,0.00,VWS V14.01,2013-09-17 10:32:00,
2013-09-17 04:35:00,61.0,54.1,25.22,SSW,211,0.0,0.0,78,0.00,,---,0.00,VWS V14.01,2013-09-17 10:35:00,
2013-09-17 04:37:00,61.0,53.7,25.22,SSW,211,2.2,4.9,77,0.00,,---,0.00,VWS V14.01,2013-09-17 10:37:00,
2013-09-17 04:38:00,61.0,53.7,25.22,SSW,211,3.1,3.6,77,0.00,,---,0.00,VWS V14.01,2013-09-17 10:38:00,
2013-09-17 04:41:00,61.2,53.9,25.22,SSW,211,2.2,2.2,77,0.00,,---,0.00,VWS V14.01,2013-09-17 10:41:00,
2013-09-17 04:43:00,61.2,53.9,25.22,SSW,211,3.1,3.6,77,0.00,,---,0.00,VWS V14.01,2013-09-17 10:43:00,
2013-09-17 04:45:00,61.2,53.5,25.22,SSW,211,0.0,2.2,76,0.00,,---,0.00,VWS V14.01,2013-09-17 10:45:00,
2013-09-17 04:46:00,61.2,53.5,25.22,SSW,211,3.1,3.1,76,0.00,,---,0.00,VWS V14.01,2013-09-17 10:46:00,
2013-09-17 04:47:00,61.2,53.5,25.22,SSW,211,2.2,3.1,76,0.00,,---,0.00,VWS V14.01,2013-09-17 10:47:00,
2013-09-17 04:48:00,61.2,53.5,25.22,SSW,211,0.0,3.1,76,0.00,,---,0.00,VWS V14.01,2013-09-17 10:48:00,
2013-09-17 04:50:00,61.2,53.5,25.22,SSW,200,3.6,3.6,76,0.00,,---,0.00,VWS V14.01,2013-09-17 10:50:00,
2013-09-17 04:51:00,61.2,53.9,25.22,ESE,120,4.0,4.0,77,0.00,,---,0.00,VWS V14.01,2013-09-17 10:51:00,
2013-09-17 04:52:00,61.2,53.9,25.22,SE,136,2.7,5.4,77,0.00,,---,0.00,VWS V14.01,2013-09-17 10:52:00,
2013-09-17 04:54:00,61.2,53.9,25.22,SSW,192,2.7,2.7,77,0.00,,---,0.00,VWS V14.01,2013-09-17 10:54:00,
2013-09-17 04:55:00,61.5,54.2,25.22,South,174,3.1,3.1,77,0.00,,---,0.00,VWS V14.01,2013-09-17 10:55:00,
2013-09-17 04:56:00,61.5,54.2,25.22,SSE,165,3.6,3.6,77,0.00,,---,0.00,VWS V14.01,2013-09-17 10:56:00,
2013-09-17 04:59:00,61.5,54.2,25.22,SSE,163,0.0,3.1,77,0.00,,---,0.00,VWS V14.01,2013-09-17 10:59:00,
2013-09-17 05:01:00,61.5,53.9,25.22,SSE,163,2.2,2.2,76,0.00,,---,0.00,VWS V14.01,2013-09-17 11:01:00,
2013-09-17 05:02:00,61.5,53.9,25.22,SSE,163,2.7,2.7,76,0.00,,---,0.00,VWS V14.01,2013-09-17 11:02:00,
2013-09-17 05:04:00,61.3,54.1,25.22,SSE,163,2.7,2.7,77,0.00,,---,0.00,VWS V14.01,2013-09-17 11:04:00,
2013-09-17 05:07:00,61.2,53.9,25.22,SSE,163,0.0,2.2,77,0.00,,---,0.00,VWS V14.01,2013-09-17 11:07:00,
2013-09-17 05:08:00,61.2,53.9,25.22,SSE,163,3.6,3.6,77,0.00,,---,0.00,VWS V14.01,2013-09-17 11:08:00,
2013-09-17 05:10:00,61.2,53.9,25.22,South,183,3.1,3.1,77,0.00,,---,0.00,VWS V14.01,2013-09-17 11:10:00,
2013-09-17 05:13:00,61.0,54.1,25.22,SW,219,2.2,2.7,78,0.00,,---,0.00,VWS V14.01,2013-09-17 11:13:00,
2013-09-17 05:14:00,61.0,54.1,25.22,SW,219,2.2,2.2,78,0.00,,---,0.00,VWS V14.01,2013-09-17 11:14:00,
2013-09-17 05:15:00,61.0,54.1,25.22,SW,220,2.7,2.7,78,0.00,,---,0.00,VWS V14.01,2013-09-17 11:15:00,
2013-09-17 05:16:00,61.0,54.1,25.22,SW,220,0.0,2.7,78,0.00,,---,0.00,VWS V14.01,2013-09-17 11:16:00,
2013-09-17 05:21:00,60.8,53.9,25.22,South,169,0.0,3.6,78,0.00,,---,0.00,VWS V14.01,2013-09-17 11:21:00,
2013-09-17 05:22:00,60.8,53.9,25.22,South,169,0.0,0.0,78,0.00,,---,0.00,VWS V14.01,2013-09-17 11:22:00,
2013-09-17 05:23:00,60.8,53.9,25.22,South,179,3.6,3.6,78,0.00,,---,0.00,VWS V14.01,2013-09-17 11:23:00,
2013-09-17 05:24:00,60.8,53.9,25.22,South,179,0.0,3.6,78,0.00,,---,0.00,VWS V14.01,2013-09-17 11:24:00,
2013-09-17 05:26:00,60.8,53.9,25.22,SSE,167,3.1,3.6,78,0.00,,---,0.00,VWS V14.01,2013-09-17 11:26:00,
2013-09-17 05:28:00,60.8,54.6,25.22,South,176,3.6,3.6,80,0.00,,---,0.00,VWS V14.01,2013-09-17 11:28:00,
2013-09-17 05:31:00,60.8,54.6,25.22,SSW,194,3.1,3.6,80,0.00,,---,0.00,VWS V14.01,2013-09-17 11:31:00,
2013-09-17 05:32:00,60.8,54.6,25.22,South,186,3.1,3.1,80,0.00,,---,0.00,VWS V14.01,2013-09-17 11:32:00,
2013-09-17 05:33:00,60.8,54.9,25.22,SSE,163,3.1,3.1,81,0.00,,---,0.00,VWS V14.01,2013-09-17 11:33:00,
2013-09-17 05:34:00,60.8,54.9,25.22,SSE,163,3.1,3.1,81,0.00,,---,0.00,VWS V14.01,2013-09-17 11:34:00,
2013-09-17 05:37:00,60.8,54.9,25.22,ESE,112,2.7,4.0,81,0.00,,---,0.00,VWS V14.01,2013-09-17 11:37:00,
2013-09-17 05:38:00,61.0,55.1,25.22,ESE,113,3.1,3.1,81,0.00,,---,0.00,VWS V14.01,2013-09-17 11:38:00,
2013-09-17 05:39:00,61.0,55.1,25.22,SSW,198,3.1,3.1,81,0.00,,---,0.00,VWS V14.01,2013-09-17 11:39:00,
2013-09-17 05:42:00,61.2,55.3,25.22,South,172,2.7,2.7,81,0.00,,---,0.00,VWS V14.01,2013-09-17 11:42:00,
2013-09-17 05:44:00,61.3,55.5,25.22,SSE,147,3.6,3.6,81,0.00,,---,0.00,VWS V14.01,2013-09-17 11:44:00,
2013-09-17 05:47:00,61.3,55.5,25.22,SSE,160,3.1,3.1,81,0.00,,---,0.00,VWS V14.01,2013-09-17 11:47:00,
2013-09-17 05:49:00,61.3,55.5,25.22,SSW,204,2.7,2.7,81,0.00,,---,0.00,VWS V14.01,2013-09-17 11:49:00,
2013-09-17 05:51:00,61.5,55.3,25.22,SSW,204,0.0,0.0,80,0.00,,---,0.00,VWS V14.01,2013-09-17 11:51:00,
2013-09-17 05:54:00,61.5,55.3,25.22,SSW,204,0.0,2.2,80,0.00,,---,0.00,VWS V14.01,2013-09-17 11:54:00,
2013-09-17 05:56:00,61.5,55.0,25.22,SSW,204,2.7,2.7,79,0.00,,---,0.00,VWS V14.01,2013-09-17 11:56:00,
2013-09-17 05:57:00,61.5,55.0,25.22,SSW,195,3.1,3.1,79,0.00,,---,0.00,VWS V14.01,2013-09-17 11:57:00,
2013-09-17 06:00:00,61.7,55.1,25.22,South,174,0.0,2.7,79,0.00,,---,0.00,VWS V14.01,2013-09-17 12:00:00,
2013-09-17 06:01:00,61.7,55.1,25.22,SSE,158,2.7,2.7,79,0.00,,---,0.00,VWS V14.01,2013-09-17 12:01:00,
2013-09-17 06:03:00,61.7,55.1,25.22,South,175,3.1,3.1,79,0.00,,---,0.00,VWS V14.01,2013-09-17 12:03:00,
2013-09-17 06:04:00,61.9,55.0,25.22,South,175,2.7,3.1,78,0.00,,---,0.00,VWS V14.01,2013-09-17 12:04:00,
2013-09-17 06:05:00,62.1,55.1,25.22,South,175,0.0,2.7,78,0.00,,---,0.00,VWS V14.01,2013-09-17 12:05:00,
2013-09-17 06:09:00,62.4,55.1,25.22,WSW,257,0.0,2.7,77,0.00,,---,0.00,VWS V14.01,2013-09-17 12:09:00,
2013-09-17 06:10:00,62.4,55.1,25.22,WSW,252,3.1,3.1,77,0.00,,---,0.00,VWS V14.01,2013-09-17 12:10:00,
2013-09-17 06:11:00,62.4,55.1,25.22,WSW,252,2.7,3.1,77,0.00,,---,0.00,VWS V14.01,2013-09-17 12:11:00,
2013-09-17 06:12:00,62.4,55.1,25.22,SSW,193,3.1,3.1,77,0.00,,---,0.00,VWS V14.01,2013-09-17 12:12:00,
2013-09-17 06:14:00,62.8,54.4,25.22,South,190,2.7,2.7,74,0.00,,---,0.00,VWS V14.01,2013-09-17 12:14:00,
2013-09-17 06:16:00,63.0,54.2,25.22,South,190,2.7,2.7,73,0.00,,---,0.00,VWS V14.01,2013-09-17 12:16:00,
2013-09-17 06:17:00,63.0,54.2,25.22,South,190,2.7,2.7,73,0.00,,---,0.00,VWS V14.01,2013-09-17 12:17:00,
2013-09-17 06:19:00,63.0,53.8,25.22,South,190,2.7,2.7,72,0.00,,---,0.00,VWS V14.01,2013-09-17 12:19:00,
2013-09-17 06:20:00,63.0,53.4,25.22,South,190,2.7,2.7,71,0.00,,---,0.00,VWS V14.01,2013-09-17 12:20:00,
2013-09-17 06:22:00,63.1,52.4,25.22,South,190,2.2,2.7,68,0.00,,---,0.00,VWS V14.01,2013-09-17 12:22:00,
2013-09-17 06:23:00,63.1,52.4,25.22,South,190,0.0,2.7,68,0.00,,---,0.00,VWS V14.01,2013-09-17 12:23:00,
2013-09-17 06:25:00,63.7,52.9,25.22,South,190,0.0,2.7,68,0.00,,---,0.00,VWS V14.01,2013-09-17 12:25:00,
2013-09-17 06:27:00,63.7,52.9,25.22,South,190,2.7,2.7,68,0.00,,---,0.00,VWS V14.01,2013-09-17 12:27:00,
2013-09-17 06:28:00,63.9,53.1,25.22,South,190,3.6,3.6,68,0.00,,---,0.00,VWS V14.01,2013-09-17 12:28:00,
2013-09-17 06:29:00,63.9,53.1,25.22,South,190,2.2,3.6,68,0.00,,---,0.00,VWS V14.01,2013-09-17 12:29:00,
2013-09-17 06:30:00,63.9,53.1,25.22,South,191,0.0,2.7,68,0.00,,---,0.00,VWS V14.01,2013-09-17 12:30:00,
2013-09-17 06:32:00,63.9,53.1,25.22,South,187,2.7,3.1,68,0.00,,---,0.00,VWS V14.01,2013-09-17 12:32:00,
2013-09-17 06:34:00,63.9,53.5,25.22,South,187,0.0,0.0,69,0.00,,---,0.00,VWS V14.01,2013-09-17 12:34:00,
2013-09-17 06:35:00,63.9,53.5,25.22,South,187,0.0,0.0,69,0.00,,---,0.00,VWS V14.01,2013-09-17 12:35:00,
2013-09-17 06:37:00,63.9,53.5,25.22,SSE,153,2.2,5.8,69,0.00,,---,0.00,VWS V14.01,2013-09-17 12:37:00,
2013-09-17 06:38:00,64.0,51.6,25.22,SSE,153,2.7,2.7,64,0.00,,---,0.00,VWS V14.01,2013-09-17 12:38:00,
2013-09-17 06:39:00,64.2,52.2,25.22,SSE,153,0.0,2.7,65,0.00,,---,0.00,VWS V14.01,2013-09-17 12:39:00,
2013-09-17 06:40:00,64.2,52.2,25.22,SSE,153,0.0,0.0,65,0.00,,---,0.00,VWS V14.01,2013-09-17 12:40:00,
2013-09-17 06:43:00,64.4,52.8,25.22,SSE,153,0.0,3.6,66,0.00,,---,0.00,VWS V14.01,2013-09-17 12:43:00,
2013-09-17 06:44:00,64.4,52.4,25.22,SSE,154,0.0,0.0,65,0.00,,---,0.00,VWS V14.01,2013-09-17 12:44:00,
2013-09-17 06:45:00,64.4,52.0,25.22,South,185,2.7,2.7,64,0.00,,---,0.00,VWS V14.01,2013-09-17 12:45:00,
2013-09-17 06:47:00,64.4,52.4,25.22,SSE,159,3.1,3.1,65,0.00,,---,0.00,VWS V14.01,2013-09-17 12:47:00,
2013-09-17 06:49:00,64.6,52.6,25.22,SSE,161,2.2,2.7,65,0.00,,---,0.00,VWS V14.01,2013-09-17 12:49:00,
2013-09-17 06:50:00,64.4,53.2,25.22,SSE,161,0.0,2.2,67,0.00,,---,0.00,VWS V14.01,2013-09-17 12:50:00,
2013-09-17 06:51:00,64.4,53.2,25.22,SSE,161,0.0,0.0,67,0.00,,---,0.00,VWS V14.01,2013-09-17 12:51:00,
2013-09-17 06:54:00,64.4,53.6,25.22,SSE,161,0.0,0.0,68,0.00,,---,0.00,VWS V14.01,2013-09-17 12:54:00,
2013-09-17 06:57:00,64.6,53.8,25.22,SSE,161,0.0,0.0,68,0.00,,---,0.00,VWS V14.01,2013-09-17 12:57:00,
2013-09-17 06:59:00,64.6,53.8,25.25,SSE,161,0.0,0.0,68,0.00,,---,0.00,VWS V14.01,2013-09-17 12:59:00,
2013-09-17 07:00:00,64.8,54.4,25.25,SSE,161,2.7,2.7,69,0.00,,---,0.00,VWS V14.01,2013-09-17 13:00:00,
2013-09-17 07:03:00,64.8,54.8,25.25,SSE,161,2.2,2.2,70,0.00,,---,0.00,VWS V14.01,2013-09-17 13:03:00,
2013-09-17 07:05:00,64.8,54.8,25.25,SSE,161,2.7,2.7,70,0.00,,---,0.00,VWS V14.01,2013-09-17 13:05:00,
2013-09-17 07:06:00,64.8,54.8,25.25,SSE,161,2.2,2.7,70,0.00,,---,0.00,VWS V14.01,2013-09-17 13:06:00,
2013-09-17 07:08:00,64.9,54.5,25.25,SSE,161,0.0,2.7,69,0.00,,---,0.00,VWS V14.01,2013-09-17 13:08:00,
2013-09-17 07:12:00,65.3,54.9,25.25,SSE,162,0.0,0.0,69,0.00,,---,0.00,VWS V14.01,2013-09-17 13:12:00,
2013-09-17 07:13:00,65.3,54.9,25.25,SSE,161,0.0,0.0,69,0.00,,---,0.00,VWS V14.01,2013-09-17 13:13:00,
2013-09-17 07:14:00,65.7,55.2,25.25,SSE,161,0.0,0.0,69,0.00,,---,0.00,VWS V14.01,2013-09-17 13:14:00,
2013-09-17 07:16:00,65.7,55.2,25.25,SSE,162,0.0,0.0,69,0.00,,---,0.00,VWS V14.01,2013-09-17 13:16:00,
2013-09-17 07:17:00,65.8,55.4,25.25,SSE,161,0.0,0.0,69,0.00,,---,0.00,VWS V14.01,2013-09-17 13:17:00,
2013-09-17 07:21:00,66.0,55.6,25.25,SSE,162,2.2,2.7,69,0.00,,---,0.00,VWS V14.01,2013-09-17 13:21:00,
2013-09-17 07:22:00,66.0,56.0,25.25,SSE,161,0.0,2.2,70,0.00,,---,0.00,VWS V14.01,2013-09-17 13:22:00,
2013-09-17 07:23:00,66.0,56.0,25.25,SSE,161,0.0,0.0,70,0.00,,---,0.00,VWS V14.01,2013-09-17 13:23:00,
2013-09-17 07:26:00,66.0,56.4,25.25,SSE,161,2.7,2.7,71,0.00,,---,0.00,VWS V14.01,2013-09-17 13:26:00,
2013-09-17 07:28:00,66.0,56.4,25.25,SSE,162,2.7,2.7,71,0.00,,---,0.00,VWS V14.01,2013-09-17 13:28:00,
2013-09-17 07:30:00,66.0,56.4,25.25,SSE,161,2.2,2.2,71,0.00,,---,0.00,VWS V14.01,2013-09-17 13:30:00,
2013-09-17 07:31:00,66.0,56.7,25.25,SSE,161,2.2,2.7,72,0.00,,---,0.00,VWS V14.01,2013-09-17 13:31:00,
2013-09-17 07:33:00,66.0,56.7,25.25,SSE,162,2.2,2.2,72,0.00,,---,0.00,VWS V14.01,2013-09-17 13:33:00,
2013-09-17 07:35:00,66.2,56.9,25.25,SSE,162,0.0,0.0,72,0.00,,---,0.00,VWS V14.01,2013-09-17 13:35:00,
2013-09-17 07:36:00,66.2,56.9,25.25,SSE,162,0.0,0.0,72,0.00,,---,0.00,VWS V14.01,2013-09-17 13:36:00,
2013-09-17 07:37:00,66.4,57.1,25.25,SSE,161,0.0,0.0,72,0.00,,---,0.00,VWS V14.01,2013-09-17 13:37:00,
2013-09-17 07:40:00,66.6,57.3,25.25,SSE,162,0.0,0.0,72,0.00,,---,0.00,VWS V14.01,2013-09-17 13:40:00,
2013-09-17 07:41:00,66.6,57.3,25.25,SSE,162,0.0,0.0,72,0.00,,---,0.00,VWS V14.01,2013-09-17 13:41:00,
2013-09-17 07:42:00,66.6,57.3,25.25,SSE,162,0.0,0.0,72,0.00,,---,0.00,VWS V14.01,2013-09-17 13:42:00,
2013-09-17 07:46:00,67.6,57.9,25.25,SSE,162,0.0,0.0,71,0.00,,---,0.00,VWS V14.01,2013-09-17 13:46:00,
2013-09-17 07:47:00,67.6,57.9,25.25,SSE,161,0.0,0.0,71,0.00,,---,0.00,VWS V14.01,2013-09-17 13:47:00,
2013-09-17 07:48:00,68.2,58.8,25.25,SSE,161,2.2,2.7,72,0.00,,---,0.00,VWS V14.01,2013-09-17 13:48:00,
2013-09-17 07:49:00,68.2,58.4,25.25,SSE,162,0.0,2.2,71,0.00,,---,0.00,VWS V14.01,2013-09-17 13:49:00,
2013-09-17 07:50:00,68.4,59.0,25.25,SSE,161,0.0,0.0,72,0.00,,---,0.00,VWS V14.01,2013-09-17 13:50:00,
2013-09-17 07:52:00,68.7,59.0,25.25,SSE,161,0.0,0.0,71,0.00,,---,0.00,VWS V14.01,2013-09-17 13:52:00,
2013-09-17 07:53:00,68.9,57.1,25.25,SE,145,3.1,3.1,66,0.00,,---,0.00,VWS V14.01,2013-09-17 13:53:00,
2013-09-17 07:55:00,69.3,57.4,25.25,SE,145,0.0,0.0,66,0.00,,---,0.00,VWS V14.01,2013-09-17 13:55:00,
2013-09-17 07:57:00,69.4,57.6,25.25,SE,145,0.0,0.0,66,0.00,,---,0.00,VWS V14.01,2013-09-17 13:57:00,
2013-09-17 07:59:00,69.4,57.6,25.25,SE,145,3.1,3.1,66,0.00,,---,0.00,VWS V14.01,2013-09-17 13:59:00,
2013-09-17 08:01:00,70.0,58.1,25.25,SE,145,0.0,2.7,66,0.00,,---,0.00,VWS V14.01,2013-09-17 14:01:00,
2013-09-17 08:02:00,70.0,58.1,25.25,SE,145,0.0,0.0,66,0.00,,---,0.00,VWS V14.01,2013-09-17 14:02:00,
2013-09-17 08:03:00,70.2,57.0,25.25,SE,145,0.0,0.0,63,0.00,,---,0.00,VWS V14.01,2013-09-17 14:03:00,
2013-09-17 08:04:00,70.2,56.5,25.25,SE,145,0.0,0.0,62,0.00,,---,0.00,VWS V14.01,2013-09-17 14:04:00,
2013-09-17 08:07:00,70.2,55.6,25.25,SE,145,0.0,2.2,60,0.00,,---,0.00,VWS V14.01,2013-09-17 14:07:00,
2013-09-17 08:09:00,70.2,56.1,25.25,SE,145,2.7,2.7,61,0.00,,---,0.00,VWS V14.01,2013-09-17 14:09:00,
2013-09-17 08:11:00,70.2,56.1,25.25,SE,145,0.0,2.2,61,0.00,,---,0.00,VWS V14.01,2013-09-17 14:11:00,
2013-09-17 08:12:00,70.0,56.4,25.25,SE,145,0.0,2.2,62,0.00,,---,0.00,VWS V14.01,2013-09-17 14:12:00,
2013-09-17 08:16:00,70.0,55.0,25.25,SE,145,0.0,2.2,59,0.00,,---,0.00,VWS V14.01,2013-09-17 14:16:00,
2013-09-17 08:18:00,70.0,54.5,25.25,SE,145,0.0,0.0,58,0.00,,---,0.00,VWS V14.01,2013-09-17 14:18:00,
2013-09-17 08:20:00,69.8,53.9,25.28,SE,145,2.2,3.1,57,0.00,,---,0.00,VWS V14.01,2013-09-17 14:20:00,
2013-09-17 08:22:00,69.8,53.9,25.28,SE,145,0.0,2.2,57,0.00,,---,0.00,VWS V14.01,2013-09-17 14:22:00,
2013-09-17 08:23:00,69.8,53.9,25.28,SE,145,0.0,0.0,57,0.00,,---,0.00,VWS V14.01,2013-09-17 14:23:00,
2013-09-17 08:28:00,70.0,54.5,25.28,SE,145,0.0,0.0,58,0.00,,---,0.00,VWS V14.01,2013-09-17 14:28:00,
2013-09-17 08:29:00,70.0,54.1,25.28,SE,145,0.0,0.0,57,0.00,,---,0.00,VWS V14.01,2013-09-17 14:29:00,
2013-09-17 08:32:00,70.0,53.6,25.28,SE,145,0.0,0.0,56,0.00,,---,0.00,VWS V14.01,2013-09-17 14:32:00,
2013-09-17 08:34:00,70.0,53.6,25.28,SE,145,0.0,0.0,56,0.00,,---,0.00,VWS V14.01,2013-09-17 14:34:00,
2013-09-17 08:35:00,70.3,51.4,25.28,SE,145,2.2,2.2,51,0.00,,---,0.00,VWS V14.01,2013-09-17 14:35:00,
2013-09-17 08:37:00,70.3,50.8,25.28,SE,145,0.0,0.0,50,0.00,,---,0.00,VWS V14.01,2013-09-17 14:37:00,
2013-09-17 08:38:00,70.3,52.4,25.28,SE,145,0.0,2.7,53,0.00,,---,0.00,VWS V14.01,2013-09-17 14:38:00,
2013-09-17 08:40:00,70.3,52.4,25.28,SE,145,0.0,0.0,53,0.00,,---,0.00,VWS V14.01,2013-09-17 14:40:00,
2013-09-17 08:44:00,70.2,51.7,25.28,SE,145,0.0,0.0,52,0.00,,---,0.00,VWS V14.01,2013-09-17 14:44:00,
2013-09-17 08:45:00,70.2,51.2,25.28,SE,145,0.0,0.0,51,0.00,,---,0.00,VWS V14.01,2013-09-17 14:45:00,
2013-09-17 08:46:00,70.2,51.2,25.28,SE,145,0.0,0.0,51,0.00,,---,0.00,VWS V14.01,2013-09-17 14:46:00,
2013-09-17 08:47:00,70.3,52.4,25.28,SE,145,0.0,0.0,53,0.00,,---,0.00,VWS V14.01,2013-09-17 14:47:00,
2013-09-17 08:51:00,70.3,51.4,25.28,SE,145,0.0,0.0,51,0.00,,---,0.00,VWS V14.01,2013-09-17 14:51:00,
2013-09-17 08:54:00,70.3,51.4,25.28,SE,145,0.0,0.0,51,0.00,,---,0.00,VWS V14.01,2013-09-17 14:54:00,
2013-09-17 08:55:00,70.3,51.4,25.28,SE,145,0.0,0.0,51,0.00,,---,0.00,VWS V14.01,2013-09-17 14:55:00,
2013-09-17 09:00:00,71.1,51.5,25.28,SE,145,0.0,0.0,50,0.00,,---,0.00,VWS V14.01,2013-09-17 15:00:00,
2013-09-17 09:01:00,71.2,51.7,25.28,SE,145,0.0,0.0,50,0.00,,---,0.00,VWS V14.01,2013-09-17 15:01:00,
2013-09-17 09:03:00,71.4,51.8,25.28,SE,145,0.0,0.0,50,0.00,,---,0.00,VWS V14.01,2013-09-17 15:03:00,
2013-09-17 09:04:00,71.6,51.5,25.28,SE,145,0.0,0.0,49,0.00,,---,0.00,VWS V14.01,2013-09-17 15:04:00,
2013-09-17 09:07:00,72.1,50.8,25.28,SE,145,2.7,2.7,47,0.00,,---,0.00,VWS V14.01,2013-09-17 15:07:00,
2013-09-17 09:09:00,72.1,50.8,25.28,SE,145,0.0,2.7,47,0.00,,---,0.00,VWS V14.01,2013-09-17 15:09:00,
2013-09-17 09:11:00,72.7,51.3,25.28,SE,145,2.7,2.7,47,0.00,,---,0.00,VWS V14.01,2013-09-17 15:11:00,
2013-09-17 09:13:00,73.8,52.3,25.28,SE,145,2.7,2.7,47,0.00,,---,0.00,VWS V14.01,2013-09-17 15:13:00,
2013-09-17 09:15:00,73.8,52.3,25.28,SE,146,2.7,2.7,47,0.00,,---,0.00,VWS V14.01,2013-09-17 15:15:00,
2013-09-17 09:16:00,73.8,52.3,25.28,NNE,13,2.2,2.7,47,0.00,,---,0.00,VWS V14.01,2013-09-17 15:16:00,
2013-09-17 09:18:00,73.8,52.3,25.28,ESE,113,3.1,3.1,47,0.00,,---,0.00,VWS V14.01,2013-09-17 15:18:00,
2013-09-17 09:21:00,73.8,52.3,25.28,NNE,27,3.1,3.1,47,0.00,,---,0.00,VWS V14.01,2013-09-17 15:21:00,
2013-09-17 09:23:00,76.1,52.6,25.28,NW,325,3.1,3.1,44,0.00,,---,0.00,VWS V14.01,2013-09-17 15:23:00,
2013-09-17 09:24:00,76.1,52.0,25.28,NE,44,3.1,3.1,43,0.00,,---,0.00,VWS V14.01,2013-09-17 15:24:00,
2013-09-17 09:25:00,76.1,51.4,25.28,NE,42,0.0,3.1,42,0.00,,---,0.00,VWS V14.01,2013-09-17 15:25:00,
2013-09-17 09:28:00,75.6,52.8,25.28,ENE,78,3.1,4.0,45,0.00,,---,0.00,VWS V14.01,2013-09-17 15:28:00,
2013-09-17 09:30:00,75.2,51.8,25.28,East,85,2.7,2.7,44,0.00,,---,0.00,VWS V14.01,2013-09-17 15:30:00,
2013-09-17 09:31:00,75.0,51.7,25.28,ENE,62,2.7,2.7,44,0.00,,---,0.00,VWS V14.01,2013-09-17 15:31:00,
2013-09-17 09:32:00,75.0,51.7,25.28,NE,55,0.0,5.4,44,0.00,,---,0.00,VWS V14.01,2013-09-17 15:32:00,
2013-09-17 09:33:00,75.4,53.2,25.28,WNW,297,2.7,2.7,46,0.00,,---,0.00,VWS V14.01,2013-09-17 15:33:00,
2013-09-17 09:35:00,75.6,52.8,25.28,NW,311,2.2,2.2,45,0.00,,---,0.00,VWS V14.01,2013-09-17 15:35:00,
2013-09-17 09:36:00,75.9,52.5,25.28,NW,311,2.7,2.7,44,0.00,,---,0.00,VWS V14.01,2013-09-17 15:36:00,
2013-09-17 09:37:00,75.9,52.5,25.28,ESE,119,3.6,4.0,44,0.00,,---,0.00,VWS V14.01,2013-09-17 15:37:00,
2013-09-17 09:40:00,76.5,53.0,25.28,NE,34,3.1,3.6,44,0.00,,---,0.00,VWS V14.01,2013-09-17 15:40:00,
2013-09-17 09:41:00,76.5,53.0,25.28,NE,42,3.1,3.1,44,0.00,,---,0.00,VWS V14.01,2013-09-17 15:41:00,
2013-09-17 09:43:00,76.8,53.9,25.28,NNW,340,4.0,4.0,45,0.00,,---,0.00,VWS V14.01,2013-09-17 15:43:00,
2013-09-17 09:45:00,76.8,53.9,25.28,NNE,27,4.0,5.4,45,0.00,,---,0.00,VWS V14.01,2013-09-17 15:45:00,
2013-09-17 09:46:00,76.6,53.1,25.28,NNE,27,2.7,4.0,44,0.00,,---,0.00,VWS V14.01,2013-09-17 15:46:00,
2013-09-17 09:47:00,76.5,53.0,25.28,NNE,25,2.2,2.7,44,0.00,,---,0.00,VWS V14.01,2013-09-17 15:47:00,
2013-09-17 09:49:00,76.3,53.4,25.28,NE,34,3.6,4.0,45,0.00,,---,0.00,VWS V14.01,2013-09-17 15:49:00,
2013-09-17 09:50:00,76.3,53.4,25.28,East,88,2.7,3.6,45,0.00,,---,0.00,VWS V14.01,2013-09-17 15:50:00,
2013-09-17 09:52:00,76.1,52.0,25.28,North,8,3.6,3.6,43,0.00,,---,0.00,VWS V14.01,2013-09-17 15:52:00,
2013-09-17 09:53:00,76.1,52.0,25.28,North,8,2.2,3.6,43,0.00,,---,0.00,VWS V14.01,2013-09-17 15:53:00,
2013-09-17 09:56:00,76.1,52.6,25.28,NNE,16,2.7,3.1,44,0.00,,---,0.00,VWS V14.01,2013-09-17 15:56:00,
2013-09-17 09:57:00,76.1,52.6,25.28,North,357,3.1,3.1,44,0.00,,---,0.00,VWS V14.01,2013-09-17 15:57:00,
2013-09-17 10:00:00,76.3,52.2,25.28,NNE,13,3.6,5.4,43,0.00,,---,0.00,VWS V14.01,2013-09-17 16:00:00,
2013-09-17 10:02:00,76.3,52.2,25.28,ENE,68,3.6,3.6,43,0.00,,---,0.00,VWS V14.01,2013-09-17 16:02:00,
2013-09-17 10:03:00,76.3,52.2,25.28,NW,326,3.6,4.0,43,0.00,,---,0.00,VWS V14.01,2013-09-17 16:03:00,
2013-09-17 10:05:00,75.9,51.8,25.28,North,4,3.6,5.4,43,0.00,,---,0.00,VWS V14.01,2013-09-17 16:05:00,
2013-09-17 10:08:00,75.7,51.7,25.28,NNW,343,4.0,4.0,43,0.00,,---,0.00,VWS V14.01,2013-09-17 16:08:00,
2013-09-17 10:09:00,75.7,51.7,25.28,NNW,343,2.2,4.0,43,0.00,,---,0.00,VWS V14.01,2013-09-17 16:09:00,
2013-09-17 10:12:00,75.9,52.5,25.28,NE,37,2.7,4.0,44,0.00,,---,0.00,VWS V14.01,2013-09-17 16:12:00,
2013-09-17 10:13:00,75.7,51.0,25.28,ENE,75,2.7,3.6,42,0.00,,---,0.00,VWS V14.01,2013-09-17 16:13:00,
2013-09-17 10:14:00,75.7,51.0,25.28,ESE,116,3.1,3.6,42,0.00,,---,0.00,VWS V14.01,2013-09-17 16:14:00,
2013-09-17 10:17:00,75.2,51.2,25.28,ENE,60,4.0,4.0,43,0.00,,---,0.00,VWS V14.01,2013-09-17 16:17:00,
2013-09-17 10:18:00,75.2,51.2,25.28,NE,37,0.0,4.0,43,0.00,,---,0.00,VWS V14.01,2013-09-17 16:18:00,
2013-09-17 10:20:00,74.8,50.9,25.25,NNE,21,3.1,3.1,43,0.00,,---,0.00,VWS V14.01,2013-09-17 16:20:00,
2013-09-17 10:23:00,74.8,50.9,25.25,NE,39,2.2,2.7,43,0.00,,---,0.00,VWS V14.01,2013-09-17 16:23:00,
2013-09-17 10:24:00,74.8,50.9,25.25,WNW,296,3.1,3.1,43,0.00,,---,0.00,VWS V14.01,2013-09-17 16:24:00,
2013-09-17 10:25:00,74.8,51.5,25.25,NNW,345,2.2,4.0,44,0.00,,---,0.00,VWS V14.01,2013-09-17 16:25:00,
2013-09-17 10:28:00,75.4,53.8,25.25,North,350,0.0,0.0,47,0.00,,---,0.00,VWS V14.01,2013-09-17 16:28:00,
2013-09-17 10:29:00,75.4,53.8,25.25,North,1,4.0,4.0,47,0.00,,---,0.00,VWS V14.01,2013-09-17 16:29:00,
2013-09-17 10:30:00,75.4,53.8,25.25,North,1,3.6,4.0,47,0.00,,---,0.00,VWS V14.01,2013-09-17 16:30:00,
2013-09-17 10:31:00,75.4,53.8,25.25,North,1,3.1,3.6,47,0.00,,---,0.00,VWS V14.01,2013-09-17 16:31:00,
2013-09-17 10:34:00,75.9,51.8,25.25,North,353,2.2,2.2,43,0.00,,---,0.00,VWS V14.01,2013-09-17 16:34:00,
2013-09-17 10:36:00,76.1,52.0,25.25,North,357,4.0,4.0,43,0.00,,---,0.00,VWS V14.01,2013-09-17 16:36:00,
2013-09-17 10:38:00,75.9,51.8,25.25,North,1,3.1,3.6,43,0.00,,---,0.00,VWS V14.01,2013-09-17 16:38:00,
2013-09-17 10:39:00,75.9,52.5,25.25,North,1,2.7,3.1,44,0.00,,---,0.00,VWS V14.01,2013-09-17 16:39:00,
2013-09-17 10:43:00,75.7,51.7,25.25,NNW,338,2.2,3.6,43,0.00,,---,0.00,VWS V14.01,2013-09-17 16:43:00,
2013-09-17 10:44:00,75.7,51.7,25.25,NNW,338,0.0,2.2,43,0.00,,---,0.00,VWS V14.01,2013-09-17 16:44:00,
2013-09-17 10:45:00,76.3,54.0,25.25,NE,36,3.6,3.6,46,0.00,,---,0.00,VWS V14.01,2013-09-17 16:45:00,
2013-09-17 10:48:00,76.6,53.1,25.25,ESE,114,2.7,4.0,44,0.00,,---,0.00,VWS V14.01,2013-09-17 16:48:00,
2013-09-17 10:49:00,76.6,53.1,25.25,ENE,72,4.0,4.0,44,0.00,,---,0.00,VWS V14.01,2013-09-17 16:49:00,
2013-09-17 10:50:00,76.6,53.1,25.25,East,85,4.0,4.9,44,0.00,,---,0.00,VWS V14.01,2013-09-17 16:50:00,
2013-09-17 10:52:00,76.6,53.1,25.25,ESE,107,6.3,6.3,44,0.00,,---,0.00,VWS V14.01,2013-09-17 16:52:00,
2013-09-17 10:53:00,76.6,53.1,25.25,ESE,109,5.8,6.3,44,0.00,,---,0.00,VWS V14.01,2013-09-17 16:53:00,
2013-09-17 10:57:00,75.9,51.2,25.25,SW,231,3.1,3.6,42,0.00,,---,0.00,VWS V14.01,2013-09-17 16:57:00,
2013-09-17 10:59:00,75.7,51.7,25.25,ENE,66,0.0,3.6,43,0.00,,---,0.00,VWS V14.01,2013-09-17 16:59:00,
2013-09-17 11:01:00,75.7,52.3,25.25,East,92,5.8,5.8,44,0.00,,---,0.00,VWS V14.01,2013-09-17 17:01:00,
2013-09-17 11:03:00,75.9,51.8,25.25,ENE,68,2.2,3.6,43,0.00,,---,0.00,VWS V14.01,2013-09-17 17:03:00,
2013-09-17 11:04:00,75.9,51.8,25.25,ENE,78,3.1,3.1,43,0.00,,---,0.00,VWS V14.01,2013-09-17 17:04:00,
2013-09-17 11:06:00,76.1,51.4,25.25,East,95,2.7,2.7,42,0.00,,---,0.00,VWS V14.01,2013-09-17 17:06:00,
2013-09-17 11:08:00,76.1,51.4,25.25,NE,35,3.1,4.0,42,0.00,,---,0.00,VWS V14.01,2013-09-17 17:08:00,
2013-09-17 11:09:00,75.9,51.8,25.25,NE,52,3.6,3.6,43,0.00,,---,0.00,VWS V14.01,2013-09-17 17:09:00,
2013-09-17 11:11:00,75.9,51.8,25.25,East,84,5.8,5.8,43,0.00,,---,0.00,VWS V14.01,2013-09-17 17:11:00,
2013-09-17 11:13:00,76.1,52.0,25.25,NE,38,2.7,3.1,43,0.00,,---,0.00,VWS V14.01,2013-09-17 17:13:00,
2013-09-17 11:14:00,76.1,51.4,25.25,NNE,25,4.0,4.0,42,0.00,,---,0.00,VWS V14.01,2013-09-17 17:14:00,
2013-09-17 11:15:00,76.1,51.4,25.25,NNE,25,0.0,4.0,42,0.00,,---,0.00,VWS V14.01,2013-09-17 17:15:00,
2013-09-17 11:19:00,76.5,53.6,25.22,ESE,104,2.7,3.6,45,0.00,,---,0.00,VWS V14.01,2013-09-17 17:19:00,
2013-09-17 11:20:00,76.6,53.1,25.22,ESE,119,3.6,3.6,44,0.00,,---,0.00,VWS V14.01,2013-09-17 17:20:00,
2013-09-17 11:21:00,76.5,51.0,25.22,East,101,3.6,3.6,41,0.00,,---,0.00,VWS V14.01,2013-09-17 17:21:00,
2013-09-17 11:22:00,76.3,51.5,25.22,East,85,4.9,4.9,42,0.00,,---,0.00,VWS V14.01,2013-09-17 17:22:00,
2013-09-17 11:27:00,75.7,50.4,25.22,East,85,0.0,0.0,41,0.00,,---,0.00,VWS V14.01,2013-09-17 17:27:00,
2013-09-17 11:28:00,75.7,50.4,25.22,East,84,2.2,5.4,41,0.00,,---,0.00,VWS V14.01,2013-09-17 17:28:00,
2013-09-17 11:29:00,76.1,51.4,25.22,East,98,3.1,3.1,42,0.00,,---,0.00,VWS V14.01,2013-09-17 17:29:00,
2013-09-17 11:31:00,76.3,51.5,25.22,ESE,115,4.9,5.4,42,0.00,,---,0.00,VWS V14.01,2013-09-17 17:31:00,
2013-09-17 11:32:00,76.5,53.6,25.22,ESE,120,5.8,5.8,45,0.00,,---,0.00,VWS V14.01,2013-09-17 17:32:00,
2013-09-17 11:33:00,76.8,52.7,25.22,East,90,4.0,5.8,43,0.00,,---,0.00,VWS V14.01,2013-09-17 17:33:00,
2013-09-17 11:34:00,76.8,52.7,25.22,ESE,110,4.9,4.9,43,0.00,,---,0.00,VWS V14.01,2013-09-17 17:34:00,
2013-09-17 11:37:00,76.8,52.7,25.22,East,98,3.1,3.6,43,0.00,,---,0.00,VWS V14.01,2013-09-17 17:37:00,
2013-09-17 11:38:00,77.4,52.5,25.22,East,98,3.6,5.4,42,0.00,,---,0.00,VWS V14.01,2013-09-17 17:38:00,
2013-09-17 11:40:00,77.4,52.5,25.22,East,89,3.6,3.6,42,0.00,,---,0.00,VWS V14.01,2013-09-17 17:40:00,
2013-09-17 11:41:00,77.4,49.8,25.22,ESE,116,3.1,3.6,38,0.00,,---,0.00,VWS V14.01,2013-09-17 17:41:00,
2013-09-17 11:42:00,77.4,49.8,25.22,ESE,112,2.7,3.1,38,0.00,,---,0.00,VWS V14.01,2013-09-17 17:42:00,
2013-09-17 11:46:00,77.0,52.2,25.22,East,90,2.2,2.7,42,0.00,,---,0.00,VWS V14.01,2013-09-17 17:46:00,
2013-09-17 11:47:00,77.0,52.2,25.22,SE,134,3.6,3.6,42,0.00,,---,0.00,VWS V14.01,2013-09-17 17:47:00,
2013-09-17 11:48:00,77.0,50.9,25.22,East,98,2.2,3.6,40,0.00,,---,0.00,VWS V14.01,2013-09-17 17:48:00,
2013-09-17 11:49:00,77.0,50.9,25.22,East,98,2.7,2.7,40,0.00,,---,0.00,VWS V14.01,2013-09-17 17:49:00,
2013-09-17 11:50:00,77.2,51.7,25.22,SE,137,5.8,5.8,41,0.00,,---,0.00,VWS V14.01,2013-09-17 17:50:00,
2013-09-17 11:54:00,76.8,53.3,25.22,ENE,59,3.1,3.6,44,0.00,,---,0.00,VWS V14.01,2013-09-17 17:54:00,
2013-09-17 11:56:00,76.6,53.1,25.22,NW,318,2.2,3.6,44,0.00,,---,0.00,VWS V14.01,2013-09-17 17:56:00,
2013-09-17 11:57:00,76.6,53.1,25.22,NW,325,2.7,2.7,44,0.00,,---,0.00,VWS V14.01,2013-09-17 17:57:00,
2013-09-17 12:01:00,76.5,53.0,25.22,NE,43,3.6,3.6,44,0.00,,---,0.00,VWS V14.01,2013-09-17 18:01:00,
2013-09-17 12:02:00,76.5,53.0,25.22,ENE,60,3.6,3.6,44,0.00,,---,0.00,VWS V14.01,2013-09-17 18:02:00,
2013-09-17 12:05:00,76.3,52.8,25.22,North,353,3.6,3.6,44,0.00,,---,0.00,VWS V14.01,2013-09-17 18:05:00,
2013-09-17 12:08:00,76.6,51.8,25.22,NNW,337,2.2,5.4,42,0.00,,---,0.00,VWS V14.01,2013-09-17 18:08:00,
2013-09-17 12:09:00,76.6,51.8,25.22,NW,326,2.2,2.2,42,0.00,,---,0.00,VWS V14.01,2013-09-17 18:09:00,
2013-09-17 12:13:00,76.8,52.0,25.22,NNE,27,2.7,2.7,42,0.00,,---,0.00,VWS V14.01,2013-09-17 18:13:00,
2013-09-17 12:14:00,76.8,51.4,25.22,NNE,32,2.2,3.6,41,0.00,,---,0.00,VWS V14.01,2013-09-17 18:14:00,
2013-09-17 12:17:00,76.8,51.4,25.22,NW,305,3.1,3.6,41,0.00,,---,0.00,VWS V14.01,2013-09-17 18:17:00,
2013-09-17 12:19:00,76.8,52.7,25.19,NNE,21,7.2,8.3,43,0.00,,---,0.00,VWS V14.01,2013-09-17 18:19:00,
2013-09-17 12:20:00,76.8,52.7,25.19,NW,319,3.6,7.2,43,0.00,,---,0.00,VWS V14.01,2013-09-17 18:20:00,
2013-09-17 12:21:00,76.8,52.7,25.19,NW,321,4.0,4.0,43,0.00,,---,0.00,VWS V14.01,2013-09-17 18:21:00,
2013-09-17 12:25:00,76.8,52.7,25.19,NW,311,0.0,0.0,43,0.00,,---,0.00,VWS V14.01,2013-09-17 18:25:00,
2013-09-17 12:26:00,75.9,52.5,25.19,NW,311,0.0,0.0,44,0.00,,---,0.00,VWS V14.01,2013-09-17 18:26:00,
2013-09-17 12:27:00,75.9,52.5,25.19,NW,311,0.0,0.0,44,0.00,,---,0.00,VWS V14.01,2013-09-17 18:27:00,
2013-09-17 12:30:00,75.7,52.3,25.19,NW,311,3.1,3.6,44,0.00,,---,0.00,VWS V14.01,2013-09-17 18:30:00,
2013-09-17 12:31:00,75.6,52.1,25.19,NW,311,3.1,3.1,44,0.00,,---,0.00,VWS V14.01,2013-09-17 18:31:00,
2013-09-17 12:33:00,75.4,52.0,25.19,NNW,329,2.7,2.7,44,0.00,,---,0.00,VWS V14.01,2013-09-17 18:33:00,
2013-09-17 12:34:00,75.4,52.0,25.19,ENE,77,0.0,2.7,44,0.00,,---,0.00,VWS V14.01,2013-09-17 18:34:00,
2013-09-17 12:35:00,75.2,52.4,25.19,ENE,57,3.1,3.1,45,0.00,,---,0.00,VWS V14.01,2013-09-17 18:35:00,
2013-09-17 12:39:00,75.2,52.4,25.19,NNE,20,5.8,5.8,45,0.00,,---,0.00,VWS V14.01,2013-09-17 18:39:00,
2013-09-17 12:40:00,74.1,54.3,25.19,NNE,20,5.8,5.8,50,0.00,,---,0.00,VWS V14.01,2013-09-17 18:40:00,
2013-09-17 12:41:00,74.1,54.3,25.19,ESE,123,5.4,5.8,50,0.00,,---,0.00,VWS V14.01,2013-09-17 18:41:00,
2013-09-17 12:42:00,74.1,54.3,25.19,SE,124,2.2,5.4,50,0.00,,---,0.00,VWS V14.01,2013-09-17 18:42:00,
2013-09-17 12:43:00,73.6,54.9,25.19,ENE,62,3.1,3.1,52,0.00,,---,0.00,VWS V14.01,2013-09-17 18:43:00,
2013-09-17 12:46:00,73.2,55.1,25.19,East,83,0.0,0.0,53,0.00,,---,0.00,VWS V14.01,2013-09-17 18:46:00,
2013-09-17 12:49:00,72.5,57.8,25.19,NE,53,3.1,3.1,60,0.00,,---,0.00,VWS V14.01,2013-09-17 18:49:00,
2013-09-17 12:50:00,72.3,57.2,25.19,NE,53,3.1,3.1,59,0.00,,---,0.00,VWS V14.01,2013-09-17 18:50:00,
2013-09-17 12:52:00,72.3,57.2,25.19,NE,53,3.1,3.1,59,0.00,,---,0.00,VWS V14.01,2013-09-17 18:52:00,
2013-09-17 12:53:00,72.3,57.2,25.19,NE,53,3.1,3.1,59,0.00,,---,0.00,VWS V14.01,2013-09-17 18:53:00,
2013-09-17 12:56:00,72.3,57.2,25.19,ENE,61,2.2,2.7,59,0.00,,---,0.00,VWS V14.01,2013-09-17 18:56:00,
2013-09-17 12:58:00,72.3,57.2,25.19,NE,48,0.0,3.1,59,0.00,,---,0.00,VWS V14.01,2013-09-17 18:58:00,
2013-09-17 12:59:00,72.3,57.2,25.19,NE,48,0.0,0.0,59,0.00,,---,0.00,VWS V14.01,2013-09-17 18:59:00,
2013-09-17 13:01:00,72.3,57.2,25.19,East,98,3.6,4.0,59,0.00,,---,0.00,VWS V14.01,2013-09-17 19:01:00,
2013-09-17 13:02:00,72.3,57.2,25.19,NNE,28,3.6,3.6,59,0.00,,---,0.00,VWS V14.01,2013-09-17 19:02:00,
2013-09-17 13:03:00,70.7,58.8,25.19,ENE,67,3.1,3.6,66,0.00,,---,0.00,VWS V14.01,2013-09-17 19:03:00,
2013-09-17 13:06:00,70.5,59.0,25.19,East,93,6.3,6.3,67,0.00,,---,0.00,VWS V14.01,2013-09-17 19:06:00,
2013-09-17 13:07:00,70.5,59.0,25.19,ESE,110,2.2,6.3,67,0.00,,---,0.00,VWS V14.01,2013-09-17 19:07:00,
2013-09-17 13:08:00,70.5,59.0,25.19,ESE,110,2.7,2.7,67,0.00,,---,0.00,VWS V14.01,2013-09-17 19:08:00,
2013-09-17 13:09:00,70.5,59.0,25.19,East,93,3.6,3.6,67,0.00,,---,0.00,VWS V14.01,2013-09-17 19:09:00,
2013-09-17 13:11:00,70.5,59.0,25.19,ESE,110,2.7,2.7,67,0.00,,---,0.00,VWS V14.01,2013-09-17 19:11:00,
2013-09-17 13:12:00,70.5,59.0,25.19,ESE,115,4.9,5.8,67,0.00,,---,0.00,VWS V14.01,2013-09-17 19:12:00,
2013-09-17 13:13:00,70.5,59.0,25.19,SE,134,2.7,4.9,67,0.00,,---,0.00,VWS V14.01,2013-09-17 19:13:00,
2013-09-17 13:15:00,70.5,59.0,25.19,SE,130,3.6,4.9,67,0.00,,---,0.00,VWS V14.01,2013-09-17 19:15:00,
2013-09-17 13:17:00,69.8,57.5,25.19,East,98,5.4,5.4,65,0.00,,---,0.00,VWS V14.01,2013-09-17 19:17:00,
2013-09-17 13:18:00,69.8,56.7,25.19,East,98,5.4,5.4,63,0.00,,---,0.00,VWS V14.01,2013-09-17 19:18:00,
2013-09-17 13:19:00,69.6,56.9,25.19,East,98,5.4,5.4,64,0.00,,---,0.00,VWS V14.01,2013-09-17 19:19:00,
2013-09-17 13:20:00,69.6,56.9,25.19,East,98,5.4,5.4,64,0.00,,---,0.00,VWS V14.01,2013-09-17 19:20:00,
2013-09-17 13:24:00,69.6,57.8,25.19,East,98,5.4,5.4,66,0.00,,---,0.00,VWS V14.01,2013-09-17 19:24:00,
2013-09-17 13:26:00,69.8,57.5,25.19,East,98,5.4,5.4,65,0.00,,---,0.00,VWS V14.01,2013-09-17 19:26:00,
2013-09-17 13:27:00,69.8,57.5,25.19,East,98,5.4,5.4,65,0.00,,---,0.00,VWS V14.01,2013-09-17 19:27:00,
2013-09-17 13:29:00,70.0,58.5,25.19,East,82,3.1,5.4,67,0.00,,---,0.00,VWS V14.01,2013-09-17 19:29:00,
2013-09-17 13:30:00,70.0,58.1,25.19,East,82,3.1,3.1,66,0.00,,---,0.00,VWS V14.01,2013-09-17 19:30:00,
2013-09-17 13:34:00,70.2,58.7,25.16,SE,129,3.1,3.1,67,0.00,,---,0.00,VWS V14.01,2013-09-17 19:34:00,
2013-09-17 13:35:00,70.3,58.9,25.16,SE,129,3.1,3.1,67,0.00,,---,0.00,VWS V14.01,2013-09-17 19:35:00,
2013-09-17 13:36:00,70.3,58.9,25.16,NNE,27,5.4,5.4,67,0.00,,---,0.00,VWS V14.01,2013-09-17 19:36:00,
2013-09-17 13:37:00,70.3,58.0,25.16,NNE,27,5.4,5.4,65,0.00,,---,0.00,VWS V14.01,2013-09-17 19:37:00,
2013-09-17 13:41:00,70.2,57.9,25.16,ESE,112,3.6,3.6,65,0.00,,---,0.00,VWS V14.01,2013-09-17 19:41:00,
2013-09-17 13:43:00,70.2,57.9,25.16,ESE,112,3.6,3.6,65,0.00,,---,0.00,VWS V14.01,2013-09-17 19:43:00,
2013-09-17 13:46:00,70.0,58.1,25.16,ESE,116,5.8,5.8,66,0.00,,---,0.00,VWS V14.01,2013-09-17 19:46:00,
2013-09-17 13:47:00,70.0,58.1,25.16,ESE,116,5.8,5.8,66,0.00,,---,0.00,VWS V14.01,2013-09-17 19:47:00,
2013-09-17 13:51:00,69.8,58.4,25.16,East,93,2.7,2.7,67,0.00,,---,0.00,VWS V14.01,2013-09-17 19:51:00,
2013-09-17 13:54:00,69.6,58.6,25.16,East,93,2.7,2.7,68,0.00,,---,0.00,VWS V14.01,2013-09-17 19:54:00,
2013-09-17 13:55:00,69.6,58.6,25.16,East,93,2.7,2.7,68,0.00,,---,0.00,VWS V14.01,2013-09-17 19:55:00,
2013-09-17 13:57:00,69.6,58.6,25.16,East,93,2.7,2.7,68,0.00,,---,0.00,VWS V14.01,2013-09-17 19:57:00,
2013-09-17 13:59:00,69.6,58.6,25.16,East,93,2.7,2.7,68,0.00,,---,0.00,VWS V14.01,2013-09-17 19:59:00,
2013-09-17 14:00:00,69.6,58.6,25.16,East,93,2.7,2.7,68,0.00,,---,0.00,VWS V14.01,2013-09-17 20:00:00,
2013-09-17 14:02:00,69.6,59.0,25.16,East,93,2.7,2.7,69,0.00,,---,0.00,VWS V14.01,2013-09-17 20:02:00,
2013-09-17 14:06:00,69.6,59.0,25.16,SE,146,3.6,3.6,69,0.00,,---,0.00,VWS V14.01,2013-09-17 20:06:00,
2013-09-17 14:07:00,69.6,59.0,25.16,ESE,103,6.3,6.3,69,0.00,,---,0.00,VWS V14.01,2013-09-17 20:07:00,
2013-09-17 14:08:00,69.3,61.8,25.16,ESE,103,6.3,6.3,77,0.00,,---,0.00,VWS V14.01,2013-09-17 20:08:00,
2013-09-17 14:09:00,69.1,61.6,25.16,ESE,103,6.3,6.3,77,0.00,,---,0.00,VWS V14.01,2013-09-17 20:09:00,
2013-09-17 14:13:00,69.1,61.6,25.16,ESE,103,6.3,6.3,77,0.00,,---,0.00,VWS V14.01,2013-09-17 20:13:00,
2013-09-17 14:16:00,69.1,61.6,25.16,ESE,103,6.3,6.3,77,0.00,,---,0.00,VWS V14.01,2013-09-17 20:16:00,
2013-09-17 14:17:00,69.1,61.6,25.16,ESE,103,6.3,6.3,77,0.00,,---,0.00,VWS V14.01,2013-09-17 20:17:00,
2013-09-17 14:18:00,67.8,62.8,25.16,ESE,103,6.3,6.3,84,0.00,,---,0.00,VWS V14.01,2013-09-17 20:18:00,
2013-09-17 14:20:00,67.6,62.6,25.16,North,357,2.2,2.2,84,0.00,,---,0.00,VWS V14.01,2013-09-17 20:20:00,
2013-09-17 14:22:00,67.6,62.6,25.16,NNW,341,2.7,2.7,84,0.00,,---,0.00,VWS V14.01,2013-09-17 20:22:00,
2013-09-17 14:23:00,67.6,62.6,25.16,NNW,341,2.7,2.7,84,0.00,,---,0.00,VWS V14.01,2013-09-17 20:23:00,
2013-09-17 14:24:00,67.6,62.6,25.16,NNW,341,2.7,2.7,84,0.00,,---,0.00,VWS V14.01,2013-09-17 20:24:00,
2013-09-17 14:29:00,67.3,62.3,25.16,NNW,341,2.7,2.7,84,0.00,,---,0.00,VWS V14.01,2013-09-17 20:29:00,
2013-09-17 14:30:00,67.3,62.0,25.16,NNW,341,2.7,2.7,83,0.00,,---,0.00,VWS V14.01,2013-09-17 20:30:00,
2013-09-17 14:31:00,67.3,62.0,25.16,NNW,341,2.7,2.7,83,0.00,,---,0.00,VWS V14.01,2013-09-17 20:31:00,
2013-09-17 14:35:00,67.5,61.8,25.16,NNW,341,2.7,2.7,82,0.00,,---,0.00,VWS V14.01,2013-09-17 20:35:00,
2013-09-17 14:36:00,67.5,61.8,25.16,NNW,341,2.7,2.7,82,0.00,,---,0.00,VWS V14.01,2013-09-17 20:36:00,
2013-09-17 14:37:00,67.5,61.8,25.16,NNW,341,2.7,2.7,82,0.00,,---,0.00,VWS V14.01,2013-09-17 20:37:00,
2013-09-17 14:38:00,67.5,61.8,25.16,NNW,341,2.7,2.7,82,0.00,,---,0.00,VWS V14.01,2013-09-17 20:38:00,
2013-09-17 14:41:00,67.5,61.8,25.16,NNW,337,0.0,0.0,82,0.00,,---,0.00,VWS V14.01,2013-09-17 20:41:00,
2013-09-17 14:42:00,67.5,61.8,25.16,NNW,337,0.0,0.0,82,0.00,,---,0.00,VWS V14.01,2013-09-17 20:42:00,
2013-09-17 14:44:00,67.5,61.8,25.16,NNW,337,0.0,0.0,82,0.00,,---,0.00,VWS V14.01,2013-09-17 20:44:00,
2013-09-17 14:46:00,67.5,61.8,25.16,NNW,337,0.0,0.0,82,0.00,,---,0.00,VWS V14.01,2013-09-17 20:46:00,
2013-09-17 14:47:00,67.5,61.8,25.16,NNW,337,0.0,0.0,82,0.00,,---,0.00,VWS V14.01,2013-09-17 20:47:00,
2013-09-17 14:50:00,67.5,61.8,25.16,NNW,337,0.0,0.0,82,0.00,,---,0.00,VWS V14.01,2013-09-17 20:50:00,
2013-09-17 14:53:00,67.8,61.1,25.16,NNW,337,0.0,0.0,79,0.00,,---,0.00,VWS V14.01,2013-09-17 20:53:00,
2013-09-17 14:54:00,67.8,61.1,25.16,NNW,337,0.0,0.0,79,0.00,,---,0.00,VWS V14.01,2013-09-17 20:54:00,
2013-09-17 14:56:00,67.8,61.1,25.16,NNW,337,0.0,0.0,79,0.00,,---,0.00,VWS V14.01,2013-09-17 20:56:00,
2013-09-17 14:57:00,67.8,61.1,25.16,NNW,337,0.0,0.0,79,0.00,,---,0.00,VWS V14.01,2013-09-17 20:57:00,
2013-09-17 14:59:00,67.8,61.1,25.16,NNW,337,0.0,0.0,79,0.00,,---,0.00,VWS V14.01,2013-09-17 20:59:00,
2013-09-17 15:01:00,67.8,61.1,25.16,NNW,337,0.0,0.0,79,0.00,,---,0.00,VWS V14.01,2013-09-17 21:01:00,
2013-09-17 15:05:00,67.8,61.1,25.16,NNW,337,0.0,0.0,79,0.00,,---,0.00,VWS V14.01,2013-09-17 21:05:00,
2013-09-17 15:07:00,68.4,60.9,25.16,NNW,337,0.0,0.0,77,0.00,,---,0.00,VWS V14.01,2013-09-17 21:07:00,
2013-09-17 15:08:00,68.5,60.7,25.16,NNW,337,0.0,0.0,76,0.00,,---,0.00,VWS V14.01,2013-09-17 21:08:00,
2013-09-17 15:10:00,68.7,60.9,25.16,NNW,337,0.0,0.0,76,0.00,,---,0.00,VWS V14.01,2013-09-17 21:10:00,
2013-09-17 15:12:00,68.7,61.2,25.16,NNW,337,0.0,0.0,77,0.00,,---,0.00,VWS V14.01,2013-09-17 21:12:00,
2013-09-17 15:14:00,68.7,61.2,25.16,NNW,337,0.0,0.0,77,0.00,,---,0.00,VWS V14.01,2013-09-17 21:14:00,
2013-09-17 15:16:00,68.7,61.2,25.16,NNW,337,0.0,0.0,77,0.00,,---,0.00,VWS V14.01,2013-09-17 21:16:00,
2013-09-17 15:17:00,68.7,61.2,25.16,NNW,337,0.0,0.0,77,0.00,,---,0.00,VWS V14.01,2013-09-17 21:17:00,
2013-09-17 15:18:00,68.7,61.2,25.16,NNW,337,0.0,0.0,77,0.00,,---,0.00,VWS V14.01,2013-09-17 21:18:00,
2013-09-17 15:20:00,68.7,61.2,25.16,NNW,337,0.0,0.0,77,0.00,,---,0.00,VWS V14.01,2013-09-17 21:20:00,
2013-09-17 15:21:00,68.7,61.2,25.16,NNW,337,0.0,0.0,77,0.00,,---,0.00,VWS V14.01,2013-09-17 21:21:00,
2013-09-17 15:23:00,69.1,61.6,25.16,NNW,337,0.0,0.0,77,0.00,,---,0.00,VWS V14.01,2013-09-17 21:23:00,
2013-09-17 15:26:00,69.1,61.6,25.16,NNW,337,0.0,0.0,77,0.00,,---,0.00,VWS V14.01,2013-09-17 21:26:00,
2013-09-17 15:29:00,69.1,61.6,25.16,NNW,337,0.0,0.0,77,0.00,,---,0.00,VWS V14.01,2013-09-17 21:29:00,
2013-09-17 15:30:00,69.1,61.6,25.16,NNW,337,0.0,0.0,77,0.00,,---,0.00,VWS V14.01,2013-09-17 21:30:00,
2013-09-17 15:31:00,69.1,61.6,25.16,NNW,337,0.0,0.0,77,0.00,,---,0.00,VWS V14.01,2013-09-17 21:31:00,
2013-09-17 15:32:00,69.1,61.6,25.16,NNW,337,0.0,0.0,77,0.00,,---,0.00,VWS V14.01,2013-09-17 21:32:00,
2013-09-17 15:35:00,68.5,61.0,25.16,NNW,337,0.0,0.0,77,0.00,,---,0.00,VWS V14.01,2013-09-17 21:35:00,
2013-09-17 15:38:00,68.5,61.0,25.16,NNW,337,0.0,0.0,77,0.00,,---,0.00,VWS V14.01,2013-09-17 21:38:00,
2013-09-17 15:41:00,68.4,60.9,25.16,NNW,337,0.0,0.0,77,0.00,,---,0.00,VWS V14.01,2013-09-17 21:41:00,
2013-09-17 15:42:00,68.4,60.9,25.16,NNW,337,0.0,0.0,77,0.00,,---,0.00,VWS V14.01,2013-09-17 21:42:00,
2013-09-17 15:47:00,68.4,60.9,25.16,NNW,337,0.0,0.0,77,0.00,,---,0.00,VWS V14.01,2013-09-17 21:47:00,
2013-09-17 15:48:00,68.4,60.9,25.16,NNW,337,0.0,0.0,77,0.00,,---,0.00,VWS V14.01,2013-09-17 21:48:00,
2013-09-17 15:50:00,68.4,60.9,25.16,NNW,337,0.0,0.0,77,0.00,,---,0.00,VWS V14.01,2013-09-17 21:50:00,
2013-09-17 15:52:00,68.4,60.9,25.16,NNW,337,0.0,0.0,77,0.00,,---,0.00,VWS V14.01,2013-09-17 21:52:00,
2013-09-17 15:53:00,68.4,60.9,25.16,NNW,337,0.0,0.0,77,0.00,,---,0.00,VWS V14.01,2013-09-17 21:53:00,
2013-09-17 15:57:00,68.4,60.9,25.16,NNW,337,0.0,0.0,77,0.00,,---,0.00,VWS V14.01,2013-09-17 21:57:00,
2013-09-17 15:59:00,68.4,60.9,25.16,NNW,337,0.0,0.0,77,0.00,,---,0.00,VWS V14.01,2013-09-17 21:59:00,
2013-09-17 16:00:00,68.4,60.9,25.16,NNW,337,0.0,0.0,77,0.00,,---,0.00,VWS V14.01,2013-09-17 22:00:00,
2013-09-17 16:04:00,68.4,60.9,25.16,NNW,337,0.0,0.0,77,0.00,,---,0.00,VWS V14.01,2013-09-17 22:04:00,
2013-09-17 16:06:00,68.4,60.9,25.16,NNW,337,0.0,0.0,77,0.00,,---,0.00,VWS V14.01,2013-09-17 22:06:00,
2013-09-17 16:09:00,68.4,60.9,25.16,North,349,2.2,3.1,77,0.00,,---,0.00,VWS V14.01,2013-09-17 22:09:00,
2013-09-17 16:10:00,68.4,60.9,25.16,North,349,2.2,2.2,77,0.00,,---,0.00,VWS V14.01,2013-09-17 22:10:00,
2013-09-17 16:11:00,68.4,60.9,25.16,North,349,2.2,2.2,77,0.00,,---,0.00,VWS V14.01,2013-09-17 22:11:00,
2013-09-17 16:14:00,68.4,60.9,25.16,North,349,2.2,2.2,77,0.00,,---,0.00,VWS V14.01,2013-09-17 22:14:00,
2013-09-17 16:17:00,68.4,60.9,25.16,North,349,0.0,0.0,77,0.00,,---,0.00,VWS V14.01,2013-09-17 22:17:00,
2013-09-17 16:20:00,68.4,60.9,25.16,North,349,0.0,0.0,77,0.00,,---,0.00,VWS V14.01,2013-09-17 22:20:00,
2013-09-17 16:22:00,68.4,60.9,25.16,North,349,0.0,0.0,77,0.00,,---,0.00,VWS V14.01,2013-09-17 22:22:00,
2013-09-17 16:23:00,68.4,60.9,25.16,North,349,0.0,0.0,77,0.00,,---,0.00,VWS V14.01,2013-09-17 22:23:00,
2013-09-17 16:27:00,68.4,60.9,25.16,North,349,0.0,0.0,77,0.00,,---,0.00,VWS V14.01,2013-09-17 22:27:00,
2013-09-17 16:28:00,68.4,60.9,25.16,North,349,0.0,0.0,77,0.00,,---,0.00,VWS V14.01,2013-09-17 22:28:00,
2013-09-17 16:29:00,68.4,60.9,25.16,North,349,0.0,0.0,77,0.00,,---,0.00,VWS V14.01,2013-09-17 22:29:00,
2013-09-17 16:34:00,68.4,60.9,25.16,North,349,0.0,0.0,77,0.00,,---,0.00,VWS V14.01,2013-09-17 22:34:00,
2013-09-17 16:35:00,68.4,60.9,25.16,North,349,0.0,0.0,77,0.00,,---,0.00,VWS V14.01,2013-09-17 22:35:00,
2013-09-17 16:36:00,68.4,60.9,25.16,North,349,0.0,0.0,77,0.00,,---,0.00,VWS V14.01,2013-09-17 22:36:00,
2013-09-17 16:38:00,68.4,60.9,25.16,North,349,0.0,0.0,77,0.00,,---,0.00,VWS V14.01,2013-09-17 22:38:00,
2013-09-17 16:43:00,68.4,60.9,25.16,North,349,0.0,0.0,77,0.00,,---,0.00,VWS V14.01,2013-09-17 22:43:00,
2013-09-17 16:44:00,68.4,60.9,25.16,North,349,0.0,0.0,77,0.00,,---,0.00,VWS V14.01,2013-09-17 22:44:00,
2013-09-17 16:45:00,68.4,60.9,25.16,North,349,0.0,0.0,77,0.00,,---,0.00,VWS V14.01,2013-09-17 22:45:00,
2013-09-17 16:47:00,68.4,60.9,25.16,North,349,0.0,2.7,77,0.00,,---,0.00,VWS V14.01,2013-09-17 22:47:00,
2013-09-17 16:51:00,67.8,63.2,25.16,North,349,0.0,2.2,85,0.00,,---,0.00,VWS V14.01,2013-09-17 22:51:00,
2013-09-17 16:52:00,67.8,63.2,25.16,North,349,0.0,0.0,85,0.00,,---,0.00,VWS V14.01,2013-09-17 22:52:00,
2013-09-17 16:53:00,67.6,63.0,25.16,North,349,0.0,0.0,85,0.00,,---,0.00,VWS V14.01,2013-09-17 22:53:00,
2013-09-17 16:56:00,67.6,63.0,25.16,North,349,0.0,0.0,85,0.00,,---,0.00,VWS V14.01,2013-09-17 22:56:00,
2013-09-17 16:58:00,67.6,63.0,25.16,North,349,0.0,0.0,85,0.00,,---,0.00,VWS V14.01,2013-09-17 22:58:00,
2013-09-17 17:00:00,67.6,63.0,25.16,North,349,0.0,0.0,85,0.00,,---,0.00,VWS V14.01,2013-09-17 23:00:00,
2013-09-17 17:02:00,67.6,63.0,25.16,North,349,0.0,0.0,85,0.00,,---,0.00,VWS V14.01,2013-09-17 23:02:00,
2013-09-17 17:04:00,67.6,63.0,25.16,North,349,0.0,0.0,85,0.00,,---,0.00,VWS V14.01,2013-09-17 23:04:00,
2013-09-17 17:07:00,67.6,63.0,25.19,North,349,0.0,0.0,85,0.00,,---,0.00,VWS V14.01,2013-09-17 23:07:00,
2013-09-17 17:08:00,67.6,63.0,25.19,North,349,0.0,0.0,85,0.00,,---,0.00,VWS V14.01,2013-09-17 23:08:00,
2013-09-17 17:10:00,67.6,63.0,25.19,North,349,0.0,0.0,85,0.00,,---,0.00,VWS V14.01,2013-09-17 23:10:00,
2013-09-17 17:11:00,67.6,63.0,25.19,North,349,0.0,0.0,85,0.00,,---,0.00,VWS V14.01,2013-09-17 23:11:00,
2013-09-17 17:13:00,67.6,63.0,25.19,North,349,0.0,0.0,85,0.00,,---,0.00,VWS V14.01,2013-09-17 23:13:00,
2013-09-17 17:15:00,67.6,63.0,25.19,North,349,0.0,0.0,85,0.00,,---,0.00,VWS V14.01,2013-09-17 23:15:00,
2013-09-17 17:17:00,67.6,63.0,25.19,North,349,0.0,0.0,85,0.00,,---,0.00,VWS V14.01,2013-09-17 23:17:00,
2013-09-17 17:18:00,67.6,63.0,25.19,North,349,0.0,0.0,85,0.00,,---,0.00,VWS V14.01,2013-09-17 23:18:00,
2013-09-17 17:20:00,67.6,63.0,25.19,North,349,0.0,0.0,85,0.00,,---,0.00,VWS V14.01,2013-09-17 23:20:00,
2013-09-17 17:24:00,66.4,62.7,25.19,SW,216,4.9,4.9,88,0.00,,---,0.00,VWS V14.01,2013-09-17 23:24:00,
2013-09-17 17:25:00,66.4,62.7,25.19,SW,216,4.9,4.9,88,0.00,,---,0.00,VWS V14.01,2013-09-17 23:25:00,
2013-09-17 17:26:00,66.4,62.7,25.19,SW,223,0.0,4.9,88,0.00,,---,0.00,VWS V14.01,2013-09-17 23:26:00,
2013-09-17 17:27:00,66.2,62.5,25.19,WSW,253,3.1,3.1,88,0.00,,---,0.00,VWS V14.01,2013-09-17 23:27:00,
2013-09-17 17:31:00,66.2,62.5,25.19,WSW,239,2.2,2.2,88,0.00,,---,0.00,VWS V14.01,2013-09-17 23:31:00,
2013-09-17 17:33:00,66.2,62.5,25.19,WSW,239,0.0,0.0,88,0.00,,---,0.00,VWS V14.01,2013-09-17 23:33:00,
2013-09-17 17:34:00,66.0,62.4,25.19,SW,222,2.7,2.7,88,0.00,,---,0.00,VWS V14.01,2013-09-17 23:34:00,
2013-09-17 17:40:00,66.0,62.4,25.19,South,187,0.0,0.0,88,0.00,,---,0.00,VWS V14.01,2013-09-17 23:40:00,
2013-09-17 17:41:00,66.0,62.4,25.19,South,187,0.0,0.0,88,0.00,,---,0.00,VWS V14.01,2013-09-17 23:41:00,
2013-09-17 17:42:00,66.0,62.4,25.19,SE,126,2.2,2.2,88,0.00,,---,0.00,VWS V14.01,2013-09-17 23:42:00,
2013-09-17 17:46:00,65.8,62.2,25.19,SE,126,0.0,0.0,88,0.00,,---,0.00,VWS V14.01,2013-09-17 23:46:00,
2013-09-17 17:48:00,65.8,62.2,25.19,SE,126,0.0,0.0,88,0.00,,---,0.00,VWS V14.01,2013-09-17 23:48:00,
2013-09-17 17:49:00,65.8,62.2,25.19,SE,126,2.7,2.7,88,0.00,,---,0.00,VWS V14.01,2013-09-17 23:49:00,
2013-09-17 17:50:00,65.8,62.2,25.19,SE,126,0.0,2.7,88,0.00,,---,0.00,VWS V14.01,2013-09-17 23:50:00,
2013-09-17 17:51:00,65.7,62.0,25.19,SE,126,0.0,0.0,88,0.00,,---,0.00,VWS V14.01,2013-09-17 23:51:00,
2013-09-17 17:56:00,65.7,62.0,25.19,SE,126,0.0,0.0,88,0.00,,---,0.00,VWS V14.01,2013-09-17 23:56:00,
2013-09-17 17:57:00,65.7,62.0,25.19,SE,126,0.0,0.0,88,0.00,,---,0.00,VWS V14.01,2013-09-17 23:57:00,
2013-09-17 18:00:00,65.5,61.8,25.19,SE,126,0.0,0.0,88,0.00,,---,0.00,VWS V14.01,2013-09-18 00:00:00,
2013-09-17 18:03:00,65.3,61.7,25.19,SE,126,0.0,0.0,88,0.00,,---,0.00,VWS V14.01,2013-09-18 00:03:00,
2013-09-17 18:05:00,65.1,61.5,25.19,SE,126,0.0,0.0,88,0.00,,---,0.00,VWS V14.01,2013-09-18 00:05:00,
2013-09-17 18:08:00,65.3,62.0,25.19,SE,126,0.0,0.0,89,0.00,,---,0.00,VWS V14.01,2013-09-18 00:08:00,
2013-09-17 18:09:00,65.3,62.0,25.19,SE,126,0.0,0.0,89,0.00,,---,0.00,VWS V14.01,2013-09-18 00:09:00,
2013-09-17 18:11:00,65.3,62.0,25.19,SE,126,0.0,0.0,89,0.00,,---,0.00,VWS V14.01,2013-09-18 00:11:00,
2013-09-17 18:12:00,65.3,62.0,25.19,SE,126,0.0,0.0,89,0.00,,---,0.00,VWS V14.01,2013-09-18 00:12:00,
2013-09-17 18:17:00,65.1,61.8,25.19,SE,126,0.0,0.0,89,0.08,,---,0.08,VWS V14.01,2013-09-18 00:17:00,
2013-09-17 18:18:00,65.1,61.8,25.19,SE,126,0.0,0.0,89,0.08,,---,0.08,VWS V14.01,2013-09-18 00:18:00,
2013-09-17 18:23:00,65.1,62.1,25.19,SE,126,0.0,0.0,90,0.08,,---,0.08,VWS V14.01,2013-09-18 00:23:00,
2013-09-17 18:26:00,65.1,62.1,25.19,SE,126,0.0,0.0,90,0.08,,---,0.08,VWS V14.01,2013-09-18 00:26:00,
2013-09-17 18:28:00,64.9,61.9,25.19,SE,126,0.0,0.0,90,0.08,,---,0.08,VWS V14.01,2013-09-18 00:28:00,
2013-09-17 18:29:00,64.9,61.9,25.19,SE,126,0.0,0.0,90,0.08,,---,0.08,VWS V14.01,2013-09-18 00:29:00,
2013-09-17 18:32:00,64.9,61.9,25.19,SE,126,0.0,0.0,90,0.08,,---,0.08,VWS V14.01,2013-09-18 00:32:00,
2013-09-17 18:35:00,64.9,61.9,25.22,SE,126,0.0,0.0,90,0.08,,---,0.08,VWS V14.01,2013-09-18 00:35:00,
2013-09-17 18:37:00,64.9,61.9,25.22,SE,126,0.0,0.0,90,0.08,,---,0.08,VWS V14.01,2013-09-18 00:37:00,
2013-09-17 18:39:00,64.9,61.9,25.22,SE,126,0.0,0.0,90,0.08,,---,0.08,VWS V14.01,2013-09-18 00:39:00,
2013-09-17 18:40:00,64.9,61.9,25.22,SE,126,0.0,0.0,90,0.08,,---,0.08,VWS V14.01,2013-09-18 00:40:00,
2013-09-17 18:42:00,64.8,61.8,25.22,SE,126,0.0,0.0,90,0.08,,---,0.08,VWS V14.01,2013-09-18 00:42:00,
2013-09-17 18:44:00,64.8,61.8,25.22,SE,126,0.0,0.0,90,0.08,,---,0.08,VWS V14.01,2013-09-18 00:44:00,
2013-09-17 18:48:00,64.8,61.8,25.22,SE,126,0.0,0.0,90,0.08,,---,0.08,VWS V14.01,2013-09-18 00:48:00,
2013-09-17 18:49:00,64.4,61.7,25.22,SE,126,0.0,0.0,91,0.08,,---,0.08,VWS V14.01,2013-09-18 00:49:00,
2013-09-17 18:51:00,64.4,61.7,25.22,SE,126,0.0,0.0,91,0.08,,---,0.08,VWS V14.01,2013-09-18 00:51:00,
2013-09-17 18:52:00,64.4,61.7,25.22,SE,126,0.0,0.0,91,0.08,,---,0.08,VWS V14.01,2013-09-18 00:52:00,
2013-09-17 18:56:00,64.2,61.5,25.22,SE,126,0.0,0.0,91,0.08,,---,0.08,VWS V14.01,2013-09-18 00:56:00,
2013-09-17 18:57:00,64.2,61.5,25.22,SE,126,0.0,0.0,91,0.08,,---,0.08,VWS V14.01,2013-09-18 00:57:00,
2013-09-17 18:58:00,64.0,61.4,25.22,SE,126,0.0,0.0,91,0.08,,---,0.08,VWS V14.01,2013-09-18 00:58:00,
2013-09-17 19:01:00,64.0,61.4,25.22,SE,126,0.0,0.0,91,0.08,,---,0.08,VWS V14.01,2013-09-18 01:01:00,
2013-09-17 19:03:00,64.0,61.4,25.22,SE,126,0.0,0.0,91,0.08,,---,0.08,VWS V14.01,2013-09-18 01:03:00,
2013-09-17 19:04:00,64.0,61.4,25.22,SE,126,0.0,0.0,91,0.08,,---,0.08,VWS V14.01,2013-09-18 01:04:00,
2013-09-17 19:05:00,63.9,61.5,25.22,SE,126,0.0,0.0,92,0.08,,---,0.08,VWS V14.01,2013-09-18 01:05:00,
2013-09-17 19:09:00,63.9,61.5,25.22,SE,126,0.0,0.0,92,0.08,,---,0.08,VWS V14.01,2013-09-18 01:09:00,
2013-09-17 19:11:00,63.9,61.5,25.22,SE,126,0.0,0.0,92,0.08,,---,0.08,VWS V14.01,2013-09-18 01:11:00,
2013-09-17 19:15:00,63.9,61.5,25.22,SE,126,0.0,0.0,92,0.00,,---,0.08,VWS V14.01,2013-09-18 01:15:00,
2013-09-17 19:16:00,63.9,61.5,25.22,SE,126,0.0,0.0,92,0.00,,---,0.08,VWS V14.01,2013-09-18 01:16:00,
2013-09-17 19:18:00,63.7,61.3,25.22,SE,126,0.0,0.0,92,0.00,,---,0.08,VWS V14.01,2013-09-18 01:18:00,
2013-09-17 19:19:00,63.7,61.3,25.22,SE,126,0.0,0.0,92,0.00,,---,0.08,VWS V14.01,2013-09-18 01:19:00,
2013-09-17 19:21:00,63.7,61.3,25.22,SE,126,0.0,0.0,92,0.00,,---,0.08,VWS V14.01,2013-09-18 01:21:00,
2013-09-17 19:25:00,63.7,61.3,25.22,SE,126,0.0,0.0,92,0.00,,---,0.08,VWS V14.01,2013-09-18 01:25:00,
2013-09-17 19:27:00,63.7,61.3,25.22,SE,126,0.0,0.0,92,0.00,,---,0.08,VWS V14.01,2013-09-18 01:27:00,
2013-09-17 19:30:00,63.7,61.3,25.22,SE,126,0.0,0.0,92,0.00,,---,0.08,VWS V14.01,2013-09-18 01:30:00,
2013-09-17 19:32:00,63.7,61.3,25.22,SE,126,0.0,0.0,92,0.00,,---,0.08,VWS V14.01,2013-09-18 01:32:00,
2013-09-17 19:34:00,63.9,61.8,25.22,SE,126,0.0,0.0,93,0.00,,---,0.08,VWS V14.01,2013-09-18 01:34:00,
2013-09-17 19:35:00,63.9,61.8,25.22,SE,126,0.0,0.0,93,0.00,,---,0.08,VWS V14.01,2013-09-18 01:35:00,
2013-09-17 19:38:00,63.9,61.8,25.22,SE,126,0.0,0.0,93,0.00,,---,0.08,VWS V14.01,2013-09-18 01:38:00,
2013-09-17 19:41:00,63.9,61.8,25.22,SE,126,0.0,0.0,93,0.00,,---,0.08,VWS V14.01,2013-09-18 01:41:00,
2013-09-17 19:44:00,63.9,61.8,25.22,SE,126,0.0,0.0,93,0.00,,---,0.08,VWS V14.01,2013-09-18 01:44:00,
2013-09-17 19:47:00,63.9,61.8,25.22,SE,126,0.0,0.0,93,0.00,,---,0.08,VWS V14.01,2013-09-18 01:47:00,
2013-09-17 19:50:00,63.7,61.6,25.22,SE,126,0.0,0.0,93,0.00,,---,0.08,VWS V14.01,2013-09-18 01:50:00,
2013-09-17 19:52:00,63.7,61.6,25.22,SE,126,0.0,0.0,93,0.00,,---,0.08,VWS V14.01,2013-09-18 01:52:00,
2013-09-17 19:54:00,63.7,61.6,25.22,SSE,152,0.0,0.0,93,0.00,,---,0.08,VWS V14.01,2013-09-18 01:54:00,
2013-09-17 19:56:00,63.7,61.6,25.22,SSE,152,2.7,2.7,93,0.00,,---,0.08,VWS V14.01,2013-09-18 01:56:00,
2013-09-17 20:00:00,63.7,61.6,25.22,SSE,153,2.2,2.2,93,0.00,,---,0.08,VWS V14.01,2013-09-18 02:00:00,
2013-09-17 20:01:00,63.7,61.6,25.22,SSE,153,0.0,2.2,93,0.00,,---,0.08,VWS V14.01,2013-09-18 02:01:00,
2013-09-17 20:03:00,63.5,61.8,25.22,SSE,154,2.2,2.7,94,0.00,,---,0.08,VWS V14.01,2013-09-18 02:03:00,
2013-09-17 20:06:00,63.5,61.8,25.22,SSE,154,0.0,0.0,94,0.00,,---,0.08,VWS V14.01,2013-09-18 02:06:00,
2013-09-17 20:07:00,63.5,61.8,25.22,SSE,154,0.0,0.0,94,0.00,,---,0.08,VWS V14.01,2013-09-18 02:07:00,
2013-09-17 20:10:00,63.7,61.9,25.22,SSE,154,2.2,2.2,94,0.00,,---,0.08,VWS V14.01,2013-09-18 02:10:00,
2013-09-17 20:12:00,63.7,61.9,25.22,SSE,154,0.0,2.2,94,0.00,,---,0.08,VWS V14.01,2013-09-18 02:12:00,
2013-09-17 20:13:00,63.5,61.8,25.22,SSE,154,0.0,0.0,94,0.00,,---,0.08,VWS V14.01,2013-09-18 02:13:00,
2013-09-17 20:16:00,63.5,61.8,25.22,SSE,154,0.0,2.7,94,0.00,,---,0.08,VWS V14.01,2013-09-18 02:16:00,
2013-09-17 20:17:00,63.5,61.8,25.22,SSE,154,0.0,0.0,94,0.00,,---,0.08,VWS V14.01,2013-09-18 02:17:00,
2013-09-17 20:19:00,63.5,61.8,25.22,SSE,154,0.0,0.0,94,0.00,,---,0.08,VWS V14.01,2013-09-18 02:19:00,
2013-09-17 20:22:00,63.5,61.8,25.22,SSE,154,2.7,2.7,94,0.00,,---,0.08,VWS V14.01,2013-09-18 02:22:00,
2013-09-17 20:25:00,63.5,62.0,25.22,SSE,154,2.2,3.6,95,0.00,,---,0.08,VWS V14.01,2013-09-18 02:25:00,
2013-09-17 20:28:00,63.7,62.2,25.22,SSE,154,2.2,2.2,95,0.00,,---,0.08,VWS V14.01,2013-09-18 02:28:00,
2013-09-17 20:30:00,63.7,62.2,25.22,SSE,154,0.0,0.0,95,0.00,,---,0.08,VWS V14.01,2013-09-18 02:30:00,
2013-09-17 20:31:00,63.7,62.2,25.22,SSE,154,0.0,0.0,95,0.00,,---,0.08,VWS V14.01,2013-09-18 02:31:00,
2013-09-17 20:33:00,63.7,62.2,25.22,SSE,154,0.0,0.0,95,0.00,,---,0.08,VWS V14.01,2013-09-18 02:33:00,
2013-09-17 20:35:00,63.7,62.2,25.22,SSE,154,0.0,0.0,95,0.00,,---,0.08,VWS V14.01,2013-09-18 02:35:00,
2013-09-17 20:36:00,63.7,62.2,25.22,SSE,154,0.0,0.0,95,0.00,,---,0.08,VWS V14.01,2013-09-18 02:36:00,
2013-09-17 20:41:00,63.5,62.0,25.22,SSE,154,0.0,2.7,95,0.00,,---,0.08,VWS V14.01,2013-09-18 02:41:00,
2013-09-17 20:43:00,63.5,62.0,25.22,SSE,154,2.7,2.7,95,0.00,,---,0.08,VWS V14.01,2013-09-18 02:43:00,
2013-09-17 20:44:00,63.5,62.0,25.22,SSE,154,2.2,2.7,95,0.00,,---,0.08,VWS V14.01,2013-09-18 02:44:00,
2013-09-17 20:45:00,63.5,62.0,25.22,SSE,154,2.2,2.2,95,0.00,,---,0.08,VWS V14.01,2013-09-18 02:45:00,
2013-09-17 20:47:00,63.5,62.0,25.22,SSE,154,0.0,2.2,95,0.00,,---,0.08,VWS V14.01,2013-09-18 02:47:00,
2013-09-17 20:50:00,63.5,62.0,25.25,SSE,154,0.0,0.0,95,0.00,,---,0.08,VWS V14.01,2013-09-18 02:50:00,
2013-09-17 20:51:00,63.5,62.0,25.25,SSE,154,0.0,0.0,95,0.00,,---,0.08,VWS V14.01,2013-09-18 02:51:00,
2013-09-17 20:53:00,63.5,62.0,25.25,SSE,154,0.0,0.0,95,0.00,,---,0.08,VWS V14.01,2013-09-18 02:53:00,
2013-09-17 20:56:00,63.5,62.0,25.25,SSE,154,0.0,0.0,95,0.00,,---,0.08,VWS V14.01,2013-09-18 02:56:00,
2013-09-17 20:57:00,63.5,62.0,25.25,SSE,154,0.0,0.0,95,0.00,,---,0.08,VWS V14.01,2013-09-18 02:57:00,
2013-09-17 20:58:00,63.5,62.0,25.25,SSE,154,0.0,0.0,95,0.00,,---,0.08,VWS V14.01,2013-09-18 02:58:00,
2013-09-17 21:01:00,63.5,62.0,25.25,SSE,154,0.0,0.0,95,0.00,,---,0.08,VWS V14.01,2013-09-18 03:01:00,
2013-09-17 21:02:00,63.5,62.0,25.25,SSE,154,0.0,0.0,95,0.00,,---,0.08,VWS V14.01,2013-09-18 03:02:00,
2013-09-17 21:04:00,63.5,62.0,25.25,SSE,154,2.2,2.7,95,0.00,,---,0.08,VWS V14.01,2013-09-18 03:04:00,
2013-09-17 21:06:00,63.5,62.0,25.25,SSE,154,0.0,2.2,95,0.00,,---,0.08,VWS V14.01,2013-09-18 03:06:00,
2013-09-17 21:09:00,63.5,62.0,25.25,SSE,154,0.0,2.2,95,0.00,,---,0.08,VWS V14.01,2013-09-18 03:09:00,
2013-09-17 21:10:00,63.5,62.0,25.25,SSE,154,2.2,2.2,95,0.00,,---,0.08,VWS V14.01,2013-09-18 03:10:00,
2013-09-17 21:15:00,63.7,62.2,25.25,SSE,154,2.7,2.7,95,0.00,,---,0.08,VWS V14.01,2013-09-18 03:15:00,
2013-09-17 21:16:00,63.7,62.2,25.25,SSE,154,0.0,2.7,95,0.00,,---,0.08,VWS V14.01,2013-09-18 03:16:00,
2013-09-17 21:17:00,63.7,62.2,25.25,SSE,154,0.0,0.0,95,0.00,,---,0.08,VWS V14.01,2013-09-18 03:17:00,
2013-09-17 21:22:00,63.7,62.2,25.25,SSE,154,0.0,0.0,95,0.00,,---,0.08,VWS V14.01,2013-09-18 03:22:00,
2013-09-17 21:23:00,63.7,62.2,25.25,SSE,154,0.0,0.0,95,0.00,,---,0.08,VWS V14.01,2013-09-18 03:23:00,
2013-09-17 21:25:00,63.7,62.2,25.25,SSE,154,0.0,0.0,95,0.00,,---,0.08,VWS V14.01,2013-09-18 03:25:00,
2013-09-17 21:27:00,63.7,62.2,25.25,SSE,154,0.0,0.0,95,0.00,,---,0.08,VWS V14.01,2013-09-18 03:27:00,
2013-09-17 21:29:00,63.7,62.2,25.25,SSE,154,0.0,0.0,95,0.00,,---,0.08,VWS V14.01,2013-09-18 03:29:00,
2013-09-17 21:32:00,63.7,62.2,25.25,SSE,154,0.0,0.0,95,0.00,,---,0.08,VWS V14.01,2013-09-18 03:32:00,
2013-09-17 21:33:00,63.7,62.2,25.25,SSE,154,0.0,0.0,95,0.00,,---,0.08,VWS V14.01,2013-09-18 03:33:00,
2013-09-17 21:34:00,63.7,62.2,25.25,SSE,154,0.0,0.0,95,0.00,,---,0.08,VWS V14.01,2013-09-18 03:34:00,
2013-09-17 21:35:00,63.7,61.9,25.25,SSE,154,0.0,0.0,94,0.00,,---,0.08,VWS V14.01,2013-09-18 03:35:00,
2013-09-17 21:39:00,63.7,61.9,25.25,SSE,154,2.7,2.7,94,0.00,,---,0.08,VWS V14.01,2013-09-18 03:39:00,
2013-09-17 21:40:00,63.7,61.9,25.25,SSE,154,2.2,2.7,94,0.00,,---,0.08,VWS V14.01,2013-09-18 03:40:00,
2013-09-17 21:45:00,63.7,61.9,25.25,South,181,2.7,2.7,94,0.00,,---,0.08,VWS V14.01,2013-09-18 03:45:00,
2013-09-17 21:46:00,63.7,61.9,25.25,South,181,2.7,2.7,94,0.00,,---,0.08,VWS V14.01,2013-09-18 03:46:00,
2013-09-17 21:47:00,63.7,61.9,25.25,South,181,2.2,2.7,94,0.00,,---,0.08,VWS V14.01,2013-09-18 03:47:00,
2013-09-17 21:48:00,63.7,61.9,25.25,South,181,2.2,2.2,94,0.00,,---,0.08,VWS V14.01,2013-09-18 03:48:00,
2013-09-17 21:50:00,63.7,61.9,25.25,South,181,0.0,2.2,94,0.00,,---,0.08,VWS V14.01,2013-09-18 03:50:00,
2013-09-17 21:53:00,63.7,61.9,25.25,South,181,0.0,0.0,94,0.00,,---,0.08,VWS V14.01,2013-09-18 03:53:00,
2013-09-17 21:54:00,63.7,61.9,25.25,South,181,0.0,0.0,94,0.00,,---,0.08,VWS V14.01,2013-09-18 03:54:00,
2013-09-17 21:56:00,63.7,61.9,25.25,South,181,0.0,2.2,94,0.00,,---,0.08,VWS V14.01,2013-09-18 03:56:00,
2013-09-17 21:57:00,63.7,61.9,25.25,South,181,0.0,0.0,94,0.00,,---,0.08,VWS V14.01,2013-09-18 03:57:00,
2013-09-17 21:59:00,63.5,61.8,25.25,South,181,0.0,0.0,94,0.00,,---,0.08,VWS V14.01,2013-09-18 03:59:00,
2013-09-17 22:01:00,63.5,61.4,25.25,South,181,0.0,0.0,93,0.00,,---,0.08,VWS V14.01,2013-09-18 04:01:00,
2013-09-17 22:02:00,63.5,61.4,25.25,South,181,0.0,0.0,93,0.00,,---,0.08,VWS V14.01,2013-09-18 04:02:00,
2013-09-17 22:03:00,63.5,61.4,25.25,South,181,0.0,0.0,93,0.00,,---,0.08,VWS V14.01,2013-09-18 04:03:00,
2013-09-17 22:06:00,63.5,61.4,25.25,South,181,0.0,0.0,93,0.00,,---,0.08,VWS V14.01,2013-09-18 04:06:00,
2013-09-17 22:07:00,63.5,61.4,25.25,South,181,0.0,0.0,93,0.00,,---,0.08,VWS V14.01,2013-09-18 04:07:00,
2013-09-17 22:11:00,63.5,61.4,25.25,South,181,0.0,2.2,93,0.00,,---,0.08,VWS V14.01,2013-09-18 04:11:00,
2013-09-17 22:12:00,63.5,61.4,25.25,South,181,0.0,0.0,93,0.00,,---,0.08,VWS V14.01,2013-09-18 04:12:00,
2013-09-17 22:13:00,63.5,61.4,25.25,South,181,0.0,0.0,93,0.00,,---,0.08,VWS V14.01,2013-09-18 04:13:00,
2013-09-17 22:16:00,63.5,61.4,25.25,South,181,0.0,0.0,93,0.00,,---,0.08,VWS V14.01,2013-09-18 04:16:00,
2013-09-17 22:17:00,63.5,61.4,25.25,South,181,0.0,0.0,93,0.00,,---,0.08,VWS V14.01,2013-09-18 04:17:00,
2013-09-17 22:18:00,63.5,61.4,25.25,South,181,0.0,0.0,93,0.00,,---,0.08,VWS V14.01,2013-09-18 04:18:00,
2013-09-17 22:19:00,63.5,61.4,25.25,South,181,0.0,0.0,93,0.00,,---,0.08,VWS V14.01,2013-09-18 04:19:00,
2013-09-17 22:20:00,63.5,61.4,25.25,South,181,0.0,0.0,93,0.00,,---,0.08,VWS V14.01,2013-09-18 04:20:00,
2013-09-17 22:22:00,63.3,61.3,25.25,South,181,0.0,0.0,93,0.00,,---,0.08,VWS V14.01,2013-09-18 04:22:00,
2013-09-17 22:25:00,63.3,61.3,25.25,South,181,0.0,0.0,93,0.00,,---,0.08,VWS V14.01,2013-09-18 04:25:00,
2013-09-17 22:27:00,63.5,61.8,25.25,South,181,0.0,0.0,94,0.00,,---,0.08,VWS V14.01,2013-09-18 04:27:00,
2013-09-17 22:30:00,63.5,61.8,25.25,South,181,0.0,0.0,94,0.00,,---,0.08,VWS V14.01,2013-09-18 04:30:00,
2013-09-17 22:31:00,63.5,61.8,25.25,South,181,0.0,0.0,94,0.00,,---,0.08,VWS V14.01,2013-09-18 04:31:00,
2013-09-17 22:32:00,63.5,61.8,25.25,South,181,0.0,0.0,94,0.00,,---,0.08,VWS V14.01,2013-09-18 04:32:00,
2013-09-17 22:36:00,63.3,61.6,25.25,South,181,0.0,0.0,94,0.00,,---,0.08,VWS V14.01,2013-09-18 04:36:00,
2013-09-17 22:37:00,63.3,61.6,25.25,South,181,0.0,0.0,94,0.00,,---,0.08,VWS V14.01,2013-09-18 04:37:00,
2013-09-17 22:41:00,63.3,61.6,25.25,South,181,0.0,0.0,94,0.00,,---,0.08,VWS V14.01,2013-09-18 04:41:00,
2013-09-17 22:42:00,63.3,61.6,25.25,South,181,0.0,0.0,94,0.00,,---,0.08,VWS V14.01,2013-09-18 04:42:00,
2013-09-17 22:44:00,63.3,61.6,25.25,South,181,0.0,0.0,94,0.00,,---,0.08,VWS V14.01,2013-09-18 04:44:00,
2013-09-17 22:47:00,63.3,61.6,25.25,South,181,0.0,0.0,94,0.00,,---,0.08,VWS V14.01,2013-09-18 04:47:00,
2013-09-17 22:49:00,63.3,61.6,25.25,South,181,0.0,0.0,94,0.00,,---,0.08,VWS V14.01,2013-09-18 04:49:00,
2013-09-17 22:50:00,63.3,61.6,25.25,South,181,0.0,0.0,94,0.00,,---,0.08,VWS V14.01,2013-09-18 04:50:00,
2013-09-17 22:52:00,63.3,61.6,25.25,South,181,0.0,0.0,94,0.00,,---,0.08,VWS V14.01,2013-09-18 04:52:00,
2013-09-17 22:53:00,63.3,61.6,25.25,South,181,0.0,0.0,94,0.00,,---,0.08,VWS V14.01,2013-09-18 04:53:00,
2013-09-17 22:56:00,63.3,61.6,25.25,South,181,0.0,0.0,94,0.00,,---,0.08,VWS V14.01,2013-09-18 04:56:00,
2013-09-17 22:57:00,63.3,61.6,25.25,South,181,0.0,0.0,94,0.00,,---,0.08,VWS V14.01,2013-09-18 04:57:00,
2013-09-17 22:58:00,63.3,61.6,25.25,South,181,0.0,0.0,94,0.00,,---,0.08,VWS V14.01,2013-09-18 04:58:00,
2013-09-17 23:02:00,63.3,61.6,25.25,South,181,0.0,0.0,94,0.00,,---,0.08,VWS V14.01,2013-09-18 05:02:00,
2013-09-17 23:03:00,63.3,61.6,25.25,South,181,0.0,0.0,94,0.00,,---,0.08,VWS V14.01,2013-09-18 05:03:00,
2013-09-17 23:04:00,63.3,61.6,25.25,South,181,0.0,0.0,94,0.00,,---,0.08,VWS V14.01,2013-09-18 05:04:00,
2013-09-17 23:07:00,63.3,61.6,25.25,South,181,0.0,0.0,94,0.00,,---,0.08,VWS V14.01,2013-09-18 05:07:00,
2013-09-17 23:09:00,63.3,61.6,25.25,South,181,0.0,0.0,94,0.00,,---,0.08,VWS V14.01,2013-09-18 05:09:00,
2013-09-17 23:10:00,63.3,61.6,25.25,South,181,0.0,0.0,94,0.00,,---,0.08,VWS V14.01,2013-09-18 05:10:00,
2013-09-17 23:11:00,63.3,61.6,25.25,South,181,0.0,0.0,94,0.00,,---,0.08,VWS V14.01,2013-09-18 05:11:00,
2013-09-17 23:12:00,63.3,61.6,25.25,South,181,0.0,0.0,94,0.00,,---,0.08,VWS V14.01,2013-09-18 05:12:00,
2013-09-17 23:17:00,63.5,62.0,25.25,South,181,0.0,0.0,95,0.00,,---,0.08,VWS V14.01,2013-09-18 05:17:00,
2013-09-17 23:18:00,63.5,62.0,25.25,South,181,0.0,0.0,95,0.00,,---,0.08,VWS V14.01,2013-09-18 05:18:00,
2013-09-17 23:19:00,63.5,62.0,25.25,South,181,0.0,0.0,95,0.00,,---,0.08,VWS V14.01,2013-09-18 05:19:00,
2013-09-17 23:20:00,63.5,62.0,25.25,South,181,0.0,0.0,95,0.00,,---,0.08,VWS V14.01,2013-09-18 05:20:00,
2013-09-17 23:23:00,63.7,62.2,25.25,South,181,0.0,0.0,95,0.00,,---,0.08,VWS V14.01,2013-09-18 05:23:00,
2013-09-17 23:24:00,63.7,62.2,25.25,South,181,0.0,0.0,95,0.00,,---,0.08,VWS V14.01,2013-09-18 05:24:00,
2013-09-17 23:29:00,63.7,62.2,25.25,South,181,0.0,0.0,95,0.00,,---,0.08,VWS V14.01,2013-09-18 05:29:00,
2013-09-17 23:30:00,63.7,62.2,25.25,South,181,0.0,0.0,95,0.00,,---,0.08,VWS V14.01,2013-09-18 05:30:00,
2013-09-17 23:32:00,63.5,62.0,25.25,South,181,0.0,0.0,95,0.00,,---,0.08,VWS V14.01,2013-09-18 05:32:00,
2013-09-17 23:33:00,63.5,62.0,25.25,South,181,0.0,0.0,95,0.00,,---,0.08,VWS V14.01,2013-09-18 05:33:00,
2013-09-17 23:34:00,63.5,62.0,25.25,South,181,0.0,0.0,95,0.00,,---,0.08,VWS V14.01,2013-09-18 05:34:00,
2013-09-17 23:35:00,63.5,62.0,25.25,South,181,0.0,0.0,95,0.00,,---,0.08,VWS V14.01,2013-09-18 05:35:00,
2013-09-17 23:39:00,63.5,62.0,25.25,South,181,0.0,0.0,95,0.00,,---,0.08,VWS V14.01,2013-09-18 05:39:00,
2013-09-17 23:41:00,63.5,62.0,25.25,South,181,0.0,0.0,95,0.00,,---,0.08,VWS V14.01,2013-09-18 05:41:00,
2013-09-17 23:42:00,63.5,62.0,25.25,South,181,0.0,0.0,95,0.00,,---,0.08,VWS V14.01,2013-09-18 05:42:00,
2013-09-17 23:44:00,63.5,62.0,25.25,South,181,0.0,0.0,95,0.00,,---,0.08,VWS V14.01,2013-09-18 05:44:00,
2013-09-17 23:46:00,63.5,62.0,25.25,South,181,0.0,0.0,95,0.00,,---,0.08,VWS V14.01,2013-09-18 05:46:00,
2013-09-17 23:47:00,63.5,62.0,25.25,South,181,0.0,0.0,95,0.00,,---,0.08,VWS V14.01,2013-09-18 05:47:00,
2013-09-17 23:48:00,63.3,61.9,25.25,South,181,0.0,0.0,95,0.00,,---,0.08,VWS V14.01,2013-09-18 05:48:00,
2013-09-17 23:50:00,63.3,61.9,25.25,South,181,0.0,0.0,95,0.00,,---,0.08,VWS V14.01,2013-09-18 05:50:00,
2013-09-17 23:52:00,63.3,61.9,25.25,South,181,0.0,0.0,95,0.00,,---,0.08,VWS V14.01,2013-09-18 05:52:00,
2013-09-17 23:55:00,63.1,61.7,25.25,South,181,0.0,0.0,95,0.00,,---,0.08,VWS V14.01,2013-09-18 05:55:00,
2013-09-17 23:56:00,63.1,61.7,25.25,South,181,0.0,0.0,95,0.00,,---,0.08,VWS V14.01,2013-09-18 05:56:00,
2013-09-17 23:57:00,63.1,61.7,25.25,South,181,0.0,0.0,95,0.00,,---,0.08,VWS V14.01,2013-09-18 05:57:00,
2013-09-17 23:59:00,63.1,62.0,25.25,South,181,0.0,0.0,96,0.00,,---,0.08,VWS V14.01,2013-09-18 05:59:00,